| time (UTC) | temp F | wind direction | speed knots | gust knots | rain 1hr in | rain 24hr in | rain mn in | humidity % | barometer mb |
| 20260905135720 | 83 | 331 | 0.0 | 2.6 | 0.00 | 0.06 | 0.00 | 91 | 1012.2 |
| 20260905135619 | 83 | 331 | 0.0 | 2.6 | 0.00 | 0.06 | 0.00 | 91 | 1012.3 |
| 20260905135520 | 83 | 331 | 0.9 | 2.6 | 0.00 | 0.06 | 0.00 | 91 | 1012.2 |
| 20260905135420 | 83 | 331 | 0.9 | 2.6 | 0.00 | 0.06 | 0.00 | 91 | 1012.2 |
| 20260905135322 | 83 | 331 | 1.7 | 2.6 | 0.00 | 0.06 | 0.00 | 91 | 1012.2 |
| 20260905135219 | 83 | 331 | 0.9 | 2.6 | 0.00 | 0.06 | 0.00 | 92 | 1012.2 |
| 20260905135119 | 83 | 329 | 0.9 | 2.6 | 0.00 | 0.06 | 0.00 | 92 | 1012.2 |
| 20260905135019 | 83 | 329 | 0.9 | 2.6 | 0.00 | 0.06 | 0.00 | 92 | 1012.2 |
| 20260905134919 | 83 | 329 | 0.0 | 0.0 | 0.00 | 0.06 | 0.00 | 93 | 1012.2 |
| 20260905134819 | 83 | 329 | 0.0 | 0.0 | 0.00 | 0.06 | 0.00 | 93 | 1012.2 |
| 20260905134720 | 82 | 329 | 0.0 | 0.0 | 0.00 | 0.06 | 0.00 | 93 | 1012.2 |
| 20260905134618 | 82 | 329 | 0.0 | 0.0 | 0.00 | 0.06 | 0.00 | 93 | 1012.1 |
| 20260905134520 | 82 | 329 | 0.0 | 0.0 | 0.00 | 0.06 | 0.00 | 93 | 1012.2 |
| 20260905134418 | 82 | 329 | 0.0 | 0.0 | 0.00 | 0.06 | 0.00 | 93 | 1012.1 |
| 20260905134319 | 82 | 329 | 0.0 | 0.0 | 0.00 | 0.06 | 0.00 | 94 | 1012.1 |
| 20260905134218 | 82 | 329 | 0.0 | 0.0 | 0.00 | 0.06 | 0.00 | 94 | 1012.1 |
| 20260905134120 | 82 | 327 | 0.0 | 0.0 | 0.00 | 0.06 | 0.00 | 94 | 1012.1 |
| 20260905134018 | 82 | 327 | 0.0 | 0.9 | 0.00 | 0.06 | 0.00 | 95 | 1012.2 |
| 20260905133918 | 82 | 327 | 0.0 | 2.6 | 0.00 | 0.06 | 0.00 | 95 | 1012.2 |
| 20260905133820 | 82 | 327 | 0.0 | 3.5 | 0.00 | 0.06 | 0.00 | 95 | 1012.2 |
| 20260905133719 | 81 | 327 | 0.0 | 3.5 | 0.00 | 0.06 | 0.00 | 95 | 1012.1 |
| 20260905133619 | 81 | 327 | 0.0 | 3.5 | 0.00 | 0.06 | 0.00 | 95 | 1012.1 |
| 20260905133519 | 81 | 327 | 0.0 | 3.5 | 0.00 | 0.06 | 0.00 | 95 | 1012.1 |
| 20260905133418 | 81 | 327 | 0.0 | 3.5 | 0.00 | 0.06 | 0.00 | 95 | 1012.1 |
| 20260905133318 | 81 | 327 | 0.0 | 3.5 | 0.00 | 0.06 | 0.00 | 95 | 1012.1 |
| 20260905133218 | 81 | 327 | 0.0 | 3.5 | 0.00 | 0.06 | 0.00 | 95 | 1012.1 |
| 20260905133119 | 81 | 327 | 0.9 | 3.5 | 0.00 | 0.06 | 0.00 | 95 | 1012.1 |
| 20260905133019 | 81 | 327 | 1.7 | 3.5 | 0.00 | 0.06 | 0.00 | 95 | 1012.1 |
| 20260905132920 | 81 | 327 | 0.9 | 2.6 | 0.00 | 0.06 | 0.00 | 95 | 1012.1 |
| 20260905132820 | 81 | 323 | 0.0 | 1.7 | 0.00 | 0.06 | 0.00 | 95 | 1012.0 |
| 20260905132719 | 81 | 323 | 0.0 | 1.7 | 0.00 | 0.06 | 0.00 | 96 | 1012.1 |
| 20260905132620 | 81 | 307 | 0.0 | 1.7 | 0.00 | 0.06 | 0.00 | 96 | 1012.1 |
| 20260905132520 | 81 | 307 | 0.0 | 1.7 | 0.00 | 0.06 | 0.00 | 96 | 1012.1 |
| 20260905132418 | 81 | 307 | 0.0 | 1.7 | 0.00 | 0.06 | 0.00 | 96 | 1012.1 |
| 20260905132318 | 81 | 307 | 0.0 | 1.7 | 0.00 | 0.06 | 0.00 | 96 | 1012.2 |
| 20260905132220 | 81 | 307 | 0.0 | 1.7 | 0.00 | 0.06 | 0.00 | 96 | 1012.1 |
| 20260905132118 | 81 | 307 | 0.0 | 1.7 | 0.00 | 0.06 | 0.00 | 96 | 1012.1 |
| 20260905132020 | 81 | 307 | 0.0 | 1.7 | 0.00 | 0.06 | 0.00 | 96 | 1012.2 |
| 20260905131920 | 81 | 307 | 0.0 | 1.7 | 0.00 | 0.06 | 0.00 | 96 | 1012.1 |
| 20260905131819 | 81 | 307 | 0.0 | 0.9 | 0.00 | 0.06 | 0.00 | 96 | 1012.0 |
| 20260905131718 | 81 | 307 | 0.0 | 0.0 | 0.00 | 0.06 | 0.00 | 97 | 1012.1 |
| 20260905131619 | 80 | 307 | 0.0 | 0.0 | 0.00 | 0.06 | 0.00 | 97 | 1012.1 |
| 20260905131520 | 80 | 307 | 0.0 | 0.0 | 0.00 | 0.06 | 0.00 | 97 | 1012.0 |
| 20260905131418 | 80 | 307 | 0.0 | 0.0 | 0.00 | 0.06 | 0.00 | 97 | 1012.0 |
| 20260905131318 | 80 | 307 | 0.0 | 0.0 | 0.00 | 0.06 | 0.00 | 97 | 1012.0 |
| 20260905131219 | 80 | 307 | 0.0 | 0.0 | 0.00 | 0.06 | 0.00 | 97 | 1012.0 |
| 20260905131119 | 80 | 307 | 0.0 | 0.0 | 0.00 | 0.06 | 0.00 | 97 | 1012.1 |
| 20260905131019 | 80 | 307 | 0.0 | 0.0 | 0.00 | 0.06 | 0.00 | 97 | 1012.1 |
| 20260905130918 | 80 | 307 | 0.0 | 0.0 | 0.00 | 0.06 | 0.00 | 97 | 1012.0 |
| 20260905130819 | 80 | 307 | 0.0 | 0.0 | 0.00 | 0.06 | 0.00 | 97 | 1012.1 |
| 20260905130718 | 80 | 307 | 0.0 | 0.0 | 0.00 | 0.06 | 0.00 | 97 | 1012.0 |
| 20260905130618 | 80 | 307 | 0.0 | 0.0 | 0.00 | 0.06 | 0.00 | 97 | 1012.0 |
| 20260905130520 | 80 | 307 | 0.0 | 0.0 | 0.00 | 0.06 | 0.00 | 97 | 1012.0 |
| 20260905130419 | 79 | 307 | 0.0 | 0.0 | 0.00 | 0.06 | 0.00 | 97 | 1012.0 |
| 20260905130319 | 79 | 307 | 0.0 | 0.0 | 0.00 | 0.06 | 0.00 | 97 | 1012.0 |
| 20260905130219 | 79 | 307 | 0.0 | 0.0 | 0.00 | 0.06 | 0.00 | 97 | 1012.0 |
| 20260905130118 | 79 | 307 | 0.0 | 0.0 | 0.00 | 0.06 | 0.00 | 97 | 1012.0 |
| 20260905130019 | 79 | 307 | 0.0 | 0.0 | 0.00 | 0.06 | 0.00 | 97 | 1012.0 |
| 20260905125918 | 79 | 307 | 0.0 | 0.0 | 0.00 | 0.06 | 0.00 | 97 | 1012.0 |
| 20260905125818 | 79 | 307 | 0.0 | 0.0 | 0.00 | 0.06 | 0.00 | 97 | 1012.0 |
| 20260905125718 | 79 | 307 | 0.0 | 0.0 | 0.00 | 0.06 | 0.00 | 97 | 1012.0 |
| 20260905125618 | 79 | 307 | 0.0 | 0.0 | 0.00 | 0.06 | 0.00 | 97 | 1012.0 |
| 20260905125517 | 79 | 307 | 0.0 | 0.0 | 0.00 | 0.06 | 0.00 | 97 | 1011.9 |
| 20260905125419 | 78 | 307 | 0.0 | 0.0 | 0.00 | 0.06 | 0.00 | 97 | 1011.9 |
| 20260905125317 | 78 | 307 | 0.0 | 0.0 | 0.00 | 0.06 | 0.00 | 97 | 1011.9 |
| 20260905125217 | 78 | 307 | 0.0 | 0.0 | 0.00 | 0.06 | 0.00 | 97 | 1011.9 |
| 20260905125118 | 78 | 307 | 0.0 | 0.0 | 0.00 | 0.06 | 0.00 | 97 | 1011.9 |
| 20260905125017 | 78 | 307 | 0.0 | 0.0 | 0.00 | 0.06 | 0.00 | 97 | 1011.9 |
| 20260905124917 | 78 | 196 | 0.0 | 0.0 | 0.00 | 0.06 | 0.00 | 97 | 1011.9 |
| 20260905124817 | 78 | 0 | 0.0 | 0.0 | 0.00 | 0.06 | 0.00 | 97 | 1011.9 |
| 20260905124718 | 78 | 274 | 0.0 | 0.0 | 0.00 | 0.06 | 0.00 | 97 | 1011.9 |
| 20260905124617 | 78 | 305 | 0.0 | 0.0 | 0.00 | 0.06 | 0.00 | 97 | 1011.9 |
| 20260905124517 | 78 | 306 | 0.0 | 0.0 | 0.00 | 0.06 | 0.00 | 97 | 1012.0 |
| 20260905124419 | 78 | 298 | 0.0 | 0.0 | 0.00 | 0.06 | 0.00 | 97 | 1012.0 |
| 20260905124317 | 78 | 306 | 0.0 | 0.0 | 0.00 | 0.06 | 0.00 | 97 | 1012.0 |
| 20260905124217 | 78 | 306 | 0.0 | 0.0 | 0.00 | 0.06 | 0.00 | 97 | 1011.9 |
| 20260905124117 | 78 | 307 | 0.0 | 0.0 | 0.00 | 0.06 | 0.00 | 97 | 1012.0 |
| 20260905124017 | 78 | 307 | 0.0 | 0.0 | 0.00 | 0.06 | 0.00 | 97 | 1012.0 |
| 20260905123918 | 78 | 307 | 0.0 | 0.0 | 0.00 | 0.06 | 0.00 | 97 | 1011.9 |
| 20260905123817 | 78 | 307 | 0.0 | 0.0 | 0.00 | 0.06 | 0.00 | 97 | 1011.9 |
| 20260905123719 | 78 | 307 | 0.0 | 0.0 | 0.00 | 0.06 | 0.00 | 97 | 1011.9 |
| 20260905123617 | 78 | 303 | 0.0 | 0.0 | 0.00 | 0.06 | 0.00 | 97 | 1011.9 |
| 20260905123519 | 78 | 306 | 0.0 | 0.0 | 0.00 | 0.06 | 0.00 | 97 | 1011.9 |
| 20260905123417 | 78 | 306 | 0.0 | 0.0 | 0.00 | 0.06 | 0.00 | 97 | 1011.8 |
| 20260905123317 | 78 | 306 | 0.0 | 0.0 | 0.00 | 0.06 | 0.00 | 97 | 1011.8 |
| 20260905123217 | 78 | 306 | 0.0 | 0.0 | 0.00 | 0.06 | 0.00 | 97 | 1011.8 |
| 20260905123117 | 78 | 306 | 0.0 | 0.0 | 0.00 | 0.06 | 0.00 | 97 | 1011.8 |
| 20260905123018 | 78 | 306 | 0.0 | 0.0 | 0.00 | 0.06 | 0.00 | 97 | 1011.8 |
| 20260905122918 | 78 | 305 | 0.0 | 0.0 | 0.00 | 0.06 | 0.00 | 97 | 1011.8 |
| 20260905122818 | 78 | 302 | 0.0 | 0.9 | 0.00 | 0.06 | 0.00 | 97 | 1011.8 |
| 20260905122718 | 78 | 286 | 0.0 | 1.7 | 0.00 | 0.06 | 0.00 | 97 | 1011.8 |
| 20260905122618 | 78 | 290 | 0.0 | 1.7 | 0.00 | 0.06 | 0.00 | 97 | 1011.8 |
| 20260905122517 | 78 | 295 | 0.0 | 1.7 | 0.00 | 0.06 | 0.00 | 97 | 1011.8 |
| 20260905122417 | 78 | 296 | 0.0 | 1.7 | 0.00 | 0.06 | 0.00 | 97 | 1011.8 |
| 20260905122319 | 78 | 296 | 0.0 | 1.7 | 0.00 | 0.06 | 0.00 | 97 | 1011.7 |
| 20260905122218 | 78 | 296 | 0.0 | 1.7 | 0.00 | 0.06 | 0.00 | 97 | 1011.7 |
| 20260905122117 | 78 | 296 | 0.0 | 1.7 | 0.00 | 0.06 | 0.00 | 97 | 1011.8 |
| 20260905122016 | 77 | 295 | 0.0 | 1.7 | 0.00 | 0.06 | 0.00 | 97 | 1011.7 |
| 20260905121917 | 77 | 295 | 0.9 | 1.7 | 0.00 | 0.06 | 0.00 | 97 | 1011.7 |
| 20260905121816 | 77 | 295 | 0.9 | 1.7 | 0.00 | 0.06 | 0.00 | 97 | 1011.6 |
| 20260905121718 | 77 | 295 | 0.0 | 1.7 | 0.00 | 0.06 | 0.00 | 97 | 1011.6 |
| 20260905121618 | 77 | 293 | 0.0 | 0.9 | 0.00 | 0.06 | 0.00 | 97 | 1011.7 |
| 20260905121517 | 77 | 295 | 0.0 | 0.9 | 0.00 | 0.06 | 0.00 | 97 | 1011.6 |
| 20260905121417 | 77 | 293 | 0.0 | 0.9 | 0.00 | 0.06 | 0.00 | 97 | 1011.6 |
| 20260905121316 | 77 | 293 | 0.0 | 0.9 | 0.00 | 0.06 | 0.00 | 97 | 1011.6 |
| 20260905121216 | 77 | 293 | 0.0 | 0.9 | 0.00 | 0.06 | 0.00 | 97 | 1011.7 |
| 20260905121117 | 77 | 293 | 0.0 | 0.9 | 0.00 | 0.06 | 0.00 | 97 | 1011.6 |
| 20260905121017 | 77 | 293 | 0.0 | 0.9 | 0.00 | 0.06 | 0.00 | 97 | 1011.6 |
| 20260905120918 | 77 | 293 | 0.0 | 0.9 | 0.00 | 0.06 | 0.00 | 97 | 1011.6 |
| 20260905120816 | 77 | 293 | 0.0 | 0.9 | 0.00 | 0.06 | 0.00 | 97 | 1011.6 |
| 20260905120716 | 78 | 293 | 0.0 | 0.9 | 0.00 | 0.06 | 0.00 | 97 | 1011.7 |
| 20260905120617 | 77 | 295 | 0.0 | 0.9 | 0.00 | 0.06 | 0.00 | 97 | 1011.6 |
| 20260905120516 | 78 | 295 | 0.0 | 0.0 | 0.00 | 0.06 | 0.00 | 97 | 1011.6 |
| 20260905120416 | 78 | 295 | 0.0 | 0.0 | 0.00 | 0.06 | 0.00 | 97 | 1011.5 |
| 20260905120316 | 77 | 295 | 0.0 | 0.0 | 0.00 | 0.06 | 0.00 | 97 | 1011.5 |
| 20260905120217 | 77 | 293 | 0.0 | 0.0 | 0.00 | 0.06 | 0.00 | 97 | 1011.5 |
| 20260905120117 | 77 | 295 | 0.0 | 0.0 | 0.00 | 0.06 | 0.00 | 97 | 1011.5 |
| 20260905120018 | 77 | 295 | 0.0 | 0.0 | 0.00 | 0.06 | 0.00 | 97 | 1011.5 |
| 20260905115916 | 77 | 295 | 0.0 | 0.0 | 0.00 | 0.06 | 0.00 | 97 | 1011.4 |
| 20260905115817 | 77 | 295 | 0.0 | 0.0 | 0.00 | 0.06 | 0.00 | 97 | 1011.4 |
| 20260905115717 | 78 | 295 | 0.0 | 0.0 | 0.00 | 0.06 | 0.00 | 97 | 1011.4 |
| 20260905115617 | 78 | 295 | 0.0 | 0.0 | 0.00 | 0.06 | 0.00 | 97 | 1011.4 |
| 20260905115518 | 77 | 295 | 0.0 | 0.0 | 0.00 | 0.06 | 0.00 | 97 | 1011.3 |
| 20260905115417 | 77 | 295 | 0.0 | 0.9 | 0.00 | 0.06 | 0.00 | 97 | 1011.3 |
| 20260905115316 | 77 | 295 | 0.0 | 0.9 | 0.00 | 0.06 | 0.00 | 97 | 1011.3 |
| 20260905115217 | 77 | 295 | 0.0 | 0.9 | 0.00 | 0.06 | 0.00 | 97 | 1011.3 |
| 20260905115117 | 77 | 295 | 0.0 | 0.9 | 0.00 | 0.06 | 0.00 | 97 | 1011.3 |
| 20260905115017 | 78 | 295 | 0.0 | 0.9 | 0.00 | 0.06 | 0.00 | 97 | 1011.3 |
| 20260905114916 | 77 | 295 | 0.0 | 1.7 | 0.00 | 0.06 | 0.00 | 97 | 1011.3 |
| 20260905114816 | 77 | 295 | 0.0 | 1.7 | 0.00 | 0.06 | 0.00 | 97 | 1011.3 |
| 20260905114716 | 77 | 295 | 0.0 | 1.7 | 0.00 | 0.06 | 0.00 | 97 | 1011.3 |
| 20260905114616 | 77 | 295 | 0.0 | 1.7 | 0.00 | 0.06 | 0.00 | 97 | 1011.2 |
| 20260905114518 | 77 | 295 | 0.0 | 1.7 | 0.00 | 0.06 | 0.00 | 97 | 1011.2 |
| 20260905114416 | 77 | 295 | 0.0 | 1.7 | 0.00 | 0.06 | 0.00 | 97 | 1011.2 |
| 20260905114315 | 77 | 295 | 0.0 | 1.7 | 0.00 | 0.06 | 0.00 | 97 | 1011.2 |
| 20260905114217 | 77 | 295 | 0.0 | 1.7 | 0.00 | 0.06 | 0.00 | 97 | 1011.2 |
| 20260905114117 | 77 | 295 | 0.9 | 1.7 | 0.00 | 0.06 | 0.00 | 97 | 1011.2 |
| 20260905114016 | 77 | 295 | 0.9 | 1.7 | 0.00 | 0.06 | 0.00 | 97 | 1011.1 |
| 20260905113916 | 77 | 295 | 0.9 | 1.7 | 0.00 | 0.06 | 0.00 | 97 | 1011.2 |
| 20260905113818 | 77 | 295 | 0.0 | 1.7 | 0.00 | 0.06 | 0.00 | 97 | 1011.2 |
| 20260905113716 | 77 | 197 | 0.0 | 0.0 | 0.00 | 0.06 | 0.00 | 97 | 1011.2 |
| 20260905113616 | 77 | 197 | 0.0 | 0.0 | 0.00 | 0.06 | 0.00 | 97 | 1011.2 |
| 20260905113516 | 77 | 197 | 0.0 | 0.0 | 0.00 | 0.06 | 0.00 | 97 | 1011.2 |
| 20260905113416 | 77 | 197 | 0.0 | 0.0 | 0.00 | 0.06 | 0.00 | 97 | 1011.2 |
| 20260905113317 | 77 | 197 | 0.0 | 0.0 | 0.00 | 0.06 | 0.00 | 97 | 1011.2 |
| 20260905113216 | 77 | 197 | 0.0 | 0.0 | 0.00 | 0.06 | 0.00 | 97 | 1011.2 |
| 20260905113116 | 77 | 197 | 0.0 | 0.0 | 0.00 | 0.06 | 0.00 | 97 | 1011.2 |
| 20260905113016 | 77 | 197 | 0.0 | 0.0 | 0.00 | 0.06 | 0.00 | 97 | 1011.1 |
| 20260905112916 | 77 | 199 | 0.0 | 0.0 | 0.00 | 0.06 | 0.00 | 97 | 1011.1 |
| 20260905112815 | 77 | 199 | 0.0 | 0.0 | 0.00 | 0.06 | 0.00 | 97 | 1011.0 |
| 20260905112715 | 77 | 199 | 0.0 | 0.0 | 0.00 | 0.06 | 0.00 | 97 | 1011.0 |
| 20260905112618 | 77 | 199 | 0.0 | 0.0 | 0.00 | 0.06 | 0.00 | 97 | 1011.0 |
| 20260905112516 | 77 | 199 | 0.0 | 0.0 | 0.00 | 0.06 | 0.00 | 97 | 1010.9 |
| 20260905112416 | 77 | 199 | 0.0 | 0.0 | 0.00 | 0.06 | 0.00 | 97 | 1010.9 |
| 20260905112316 | 77 | 200 | 0.0 | 0.0 | 0.00 | 0.06 | 0.00 | 97 | 1010.9 |
| 20260905112215 | 77 | 200 | 0.0 | 0.0 | 0.00 | 0.06 | 0.00 | 97 | 1010.9 |
| 20260905112116 | 77 | 200 | 0.0 | 0.0 | 0.00 | 0.06 | 0.00 | 97 | 1011.0 |
| 20260905112016 | 77 | 202 | 0.0 | 0.0 | 0.00 | 0.06 | 0.00 | 97 | 1011.0 |
| 20260905111915 | 78 | 202 | 0.0 | 0.0 | 0.00 | 0.06 | 0.00 | 97 | 1011.0 |
| 20260905111815 | 78 | 202 | 0.0 | 0.0 | 0.00 | 0.06 | 0.00 | 97 | 1010.9 |
| 20260905111717 | 78 | 202 | 0.0 | 0.0 | 0.00 | 0.06 | 0.00 | 97 | 1010.9 |
| 20260905111617 | 78 | 202 | 0.0 | 0.0 | 0.00 | 0.06 | 0.00 | 97 | 1010.9 |
| 20260905111517 | 78 | 202 | 0.0 | 0.0 | 0.00 | 0.06 | 0.00 | 97 | 1010.9 |
| 20260905111416 | 78 | 202 | 0.0 | 0.0 | 0.00 | 0.06 | 0.00 | 97 | 1010.8 |
| 20260905111316 | 78 | 202 | 0.0 | 0.0 | 0.00 | 0.06 | 0.00 | 97 | 1010.9 |
| 20260905111215 | 78 | 202 | 0.0 | 0.0 | 0.00 | 0.06 | 0.00 | 97 | 1010.9 |
| 20260905111115 | 78 | 202 | 0.0 | 0.0 | 0.00 | 0.06 | 0.00 | 97 | 1010.9 |
| 20260905111017 | 78 | 202 | 0.0 | 0.0 | 0.00 | 0.06 | 0.00 | 97 | 1010.9 |
| 20260905110915 | 78 | 202 | 0.0 | 0.0 | 0.00 | 0.06 | 0.00 | 97 | 1010.9 |
| 20260905110815 | 77 | 203 | 0.0 | 0.0 | 0.00 | 0.06 | 0.00 | 97 | 1011.0 |
| 20260905110716 | 78 | 203 | 0.0 | 0.0 | 0.00 | 0.06 | 0.00 | 97 | 1010.8 |
| 20260905110615 | 78 | 203 | 0.0 | 0.0 | 0.00 | 0.06 | 0.00 | 97 | 1010.9 |
| 20260905110515 | 78 | 203 | 0.0 | 0.0 | 0.00 | 0.06 | 0.00 | 97 | 1010.9 |
| 20260905110416 | 78 | 203 | 0.0 | 0.0 | 0.00 | 0.06 | 0.00 | 97 | 1010.9 |
| 20260905110317 | 78 | 203 | 0.0 | 0.0 | 0.00 | 0.06 | 0.00 | 97 | 1010.9 |
| 20260905110215 | 78 | 203 | 0.0 | 0.0 | 0.00 | 0.06 | 0.00 | 97 | 1010.9 |
| 20260905110116 | 78 | 203 | 0.0 | 0.0 | 0.00 | 0.06 | 0.00 | 97 | 1010.8 |
| 20260905110016 | 78 | 203 | 0.0 | 0.0 | 0.00 | 0.06 | 0.00 | 97 | 1010.9 |
| 20260905105915 | 78 | 203 | 0.0 | 0.0 | 0.00 | 0.06 | 0.00 | 97 | 1010.8 |
| 20260905105816 | 78 | 203 | 0.0 | 0.0 | 0.00 | 0.06 | 0.00 | 97 | 1010.8 |
| 20260905105716 | 78 | 203 | 0.0 | 0.0 | 0.00 | 0.06 | 0.00 | 97 | 1010.8 |
| 20260905105615 | 78 | 203 | 0.0 | 0.0 | 0.00 | 0.06 | 0.00 | 97 | 1010.8 |
| 20260905105514 | 78 | 203 | 0.0 | 0.0 | 0.00 | 0.06 | 0.00 | 97 | 1010.8 |
| 20260905105415 | 78 | 203 | 0.0 | 0.0 | 0.00 | 0.06 | 0.00 | 97 | 1010.8 |
| 20260905105317 | 78 | 203 | 0.0 | 0.0 | 0.00 | 0.06 | 0.00 | 97 | 1010.9 |
| 20260905105216 | 78 | 203 | 0.0 | 0.0 | 0.00 | 0.06 | 0.00 | 97 | 1010.9 |
| 20260905105114 | 78 | 203 | 0.0 | 0.0 | 0.00 | 0.06 | 0.00 | 97 | 1010.8 |
| 20260905105016 | 78 | 203 | 0.0 | 0.0 | 0.00 | 0.06 | 0.00 | 97 | 1010.9 |
| 20260905104916 | 78 | 203 | 0.0 | 0.0 | 0.00 | 0.06 | 0.00 | 97 | 1010.9 |
| 20260905104815 | 78 | 203 | 0.0 | 0.0 | 0.00 | 0.06 | 0.00 | 97 | 1010.9 |
| 20260905104714 | 78 | 203 | 0.0 | 0.0 | 0.00 | 0.06 | 0.00 | 97 | 1010.8 |
| 20260905104614 | 78 | 203 | 0.0 | 0.0 | 0.00 | 0.06 | 0.00 | 97 | 1010.9 |
| 20260905104511 | 78 | 203 | 0.0 | 0.0 | 0.00 | 0.06 | 0.00 | 97 | 1010.8 |
| 20260905104410 | 78 | 203 | 0.0 | 0.0 | 0.00 | 0.06 | 0.00 | 97 | 1010.9 |
| 20260905104307 | 78 | 203 | 0.0 | 0.0 | 0.00 | 0.06 | 0.00 | 97 | 1010.8 |
| 20260905104206 | 78 | 203 | 0.0 | 0.0 | 0.00 | 0.06 | 0.00 | 97 | 1010.8 |
| 20260905104104 | 78 | 203 | 0.0 | 0.0 | 0.00 | 0.06 | 0.00 | 97 | 1010.8 |
| 20260905104004 | 78 | 203 | 0.0 | 0.0 | 0.00 | 0.06 | 0.00 | 97 | 1010.8 |
| 20260905103902 | 78 | 203 | 0.0 | 0.0 | 0.00 | 0.06 | 0.00 | 97 | 1010.8 |
| 20260905103802 | 78 | 203 | 0.0 | 0.0 | 0.00 | 0.06 | 0.00 | 97 | 1010.8 |
| 20260905103701 | 78 | 203 | 0.0 | 0.0 | 0.00 | 0.06 | 0.00 | 97 | 1010.8 |
| 20260905103601 | 78 | 203 | 0.0 | 0.0 | 0.00 | 0.06 | 0.00 | 97 | 1010.8 |
| 20260905103502 | 78 | 203 | 0.0 | 0.0 | 0.00 | 0.06 | 0.00 | 97 | 1010.8 |
| 20260905103403 | 78 | 203 | 0.0 | 0.0 | 0.00 | 0.06 | 0.00 | 97 | 1010.8 |
| 20260905103301 | 78 | 203 | 0.0 | 0.0 | 0.00 | 0.06 | 0.00 | 97 | 1010.8 |
| 20260905103200 | 78 | 203 | 0.0 | 0.0 | 0.00 | 0.06 | 0.00 | 97 | 1010.9 |
| 20260905103058 | 78 | 203 | 0.0 | 0.0 | 0.00 | 0.06 | 0.00 | 97 | 1010.8 |
| 20260905102956 | 78 | 203 | 0.0 | 0.0 | 0.00 | 0.06 | 0.00 | 97 | 1010.9 |
| 20260905102855 | 78 | 203 | 0.0 | 0.0 | 0.00 | 0.06 | 0.00 | 97 | 1010.8 |
| 20260905102755 | 78 | 203 | 0.0 | 0.0 | 0.00 | 0.06 | 0.00 | 97 | 1010.8 |
| 20260905102652 | 78 | 203 | 0.0 | 0.0 | 0.00 | 0.06 | 0.00 | 97 | 1010.9 |
| 20260905102551 | 78 | 203 | 0.0 | 0.0 | 0.00 | 0.06 | 0.00 | 96 | 1010.8 |
| 20260905102450 | 78 | 203 | 0.0 | 0.0 | 0.00 | 0.06 | 0.00 | 96 | 1010.8 |
| 20260905102347 | 78 | 203 | 0.0 | 0.0 | 0.00 | 0.06 | 0.00 | 96 | 1010.8 |
| 20260905102247 | 78 | 203 | 0.0 | 0.0 | 0.00 | 0.06 | 0.00 | 96 | 1010.9 |
| 20260905102144 | 78 | 203 | 0.0 | 0.0 | 0.00 | 0.06 | 0.00 | 96 | 1010.9 |
| 20260905102043 | 78 | 203 | 0.0 | 0.0 | 0.00 | 0.06 | 0.00 | 96 | 1010.8 |
| 20260905101943 | 78 | 203 | 0.0 | 0.0 | 0.00 | 0.06 | 0.00 | 96 | 1010.8 |
| 20260905101841 | 78 | 203 | 0.0 | 0.0 | 0.00 | 0.06 | 0.00 | 97 | 1010.8 |
| 20260905101738 | 78 | 203 | 0.0 | 0.0 | 0.00 | 0.06 | 0.00 | 97 | 1010.9 |
| 20260905101638 | 78 | 203 | 0.0 | 0.0 | 0.00 | 0.06 | 0.00 | 97 | 1010.8 |
| 20260905101535 | 78 | 203 | 0.0 | 0.0 | 0.00 | 0.06 | 0.00 | 96 | 1010.8 |
| 20260905101435 | 78 | 203 | 0.0 | 0.0 | 0.00 | 0.06 | 0.00 | 97 | 1010.8 |
| 20260905101332 | 78 | 203 | 0.0 | 0.0 | 0.00 | 0.06 | 0.00 | 96 | 1010.7 |
| 20260905101232 | 78 | 204 | 0.0 | 0.0 | 0.00 | 0.06 | 0.00 | 96 | 1010.8 |
| 20260905101132 | 78 | 204 | 0.0 | 0.0 | 0.00 | 0.06 | 0.00 | 96 | 1010.8 |
| 20260905101031 | 78 | 204 | 0.0 | 0.0 | 0.00 | 0.06 | 0.00 | 96 | 1010.9 |
| 20260905100931 | 78 | 204 | 0.0 | 0.0 | 0.00 | 0.06 | 0.00 | 96 | 1010.8 |
| 20260905100831 | 78 | 204 | 0.0 | 0.0 | 0.00 | 0.06 | 0.00 | 96 | 1010.8 |
| 20260905100732 | 78 | 204 | 0.0 | 0.0 | 0.00 | 0.06 | 0.00 | 96 | 1010.9 |
| 20260905100631 | 78 | 204 | 0.0 | 0.0 | 0.00 | 0.06 | 0.00 | 96 | 1010.8 |
| 20260905100532 | 78 | 204 | 0.0 | 0.0 | 0.00 | 0.06 | 0.00 | 96 | 1010.8 |
| 20260905100432 | 78 | 204 | 0.0 | 0.0 | 0.00 | 0.06 | 0.00 | 96 | 1010.8 |
| 20260905100318 | 78 | 204 | 0.0 | 0.0 | 0.00 | 0.06 | 0.00 | 96 | 1010.8 |
| 20260905100214 | 78 | 204 | 0.0 | 0.0 | 0.00 | 0.06 | 0.00 | 96 | 1010.8 |
| 20260905100115 | 78 | 204 | 0.0 | 0.0 | 0.00 | 0.06 | 0.00 | 96 | 1010.8 |
| 20260905100015 | 78 | 204 | 0.0 | 0.0 | 0.00 | 0.06 | 0.00 | 96 | 1010.8 |
| 20260905095914 | 78 | 204 | 0.0 | 0.0 | 0.00 | 0.06 | 0.00 | 96 | 1010.8 |
| 20260905095813 | 78 | 204 | 0.0 | 0.0 | 0.00 | 0.06 | 0.00 | 97 | 1010.6 |
| 20260905095713 | 78 | 204 | 0.0 | 0.0 | 0.00 | 0.06 | 0.00 | 96 | 1010.8 |
| 20260905095613 | 78 | 204 | 0.0 | 0.0 | 0.00 | 0.06 | 0.00 | 96 | 1010.8 |
| 20260905095513 | 78 | 204 | 0.0 | 0.0 | 0.00 | 0.06 | 0.00 | 96 | 1010.8 |
| 20260905095415 | 78 | 204 | 0.0 | 0.0 | 0.00 | 0.06 | 0.00 | 96 | 1010.8 |
| 20260905095313 | 78 | 204 | 0.0 | 0.0 | 0.00 | 0.06 | 0.00 | 96 | 1010.8 |
| 20260905095213 | 78 | 204 | 0.0 | 0.0 | 0.00 | 0.06 | 0.00 | 96 | 1010.8 |
| 20260905095113 | 78 | 204 | 0.0 | 0.0 | 0.00 | 0.06 | 0.00 | 96 | 1010.8 |
| 20260905095014 | 78 | 204 | 0.0 | 0.0 | 0.00 | 0.06 | 0.00 | 96 | 1010.8 |
| 20260905094916 | 78 | 204 | 0.0 | 0.0 | 0.00 | 0.06 | 0.00 | 96 | 1010.8 |
| 20260905094814 | 78 | 204 | 0.0 | 0.0 | 0.00 | 0.06 | 0.00 | 96 | 1010.8 |
| 20260905094715 | 78 | 204 | 0.0 | 0.0 | 0.00 | 0.06 | 0.00 | 96 | 1010.8 |
| 20260905094614 | 78 | 204 | 0.0 | 0.0 | 0.00 | 0.06 | 0.00 | 96 | 1010.8 |
| 20260905094509 | 78 | 204 | 0.0 | 0.0 | 0.00 | 0.06 | 0.00 | 96 | 1010.8 |
| 20260905094406 | 78 | 204 | 0.0 | 0.0 | 0.00 | 0.06 | 0.00 | 96 | 1010.8 |
| 20260905094305 | 78 | 204 | 0.0 | 0.0 | 0.00 | 0.06 | 0.00 | 96 | 1010.7 |
| 20260905094203 | 78 | 204 | 0.0 | 0.0 | 0.00 | 0.06 | 0.00 | 96 | 1010.8 |
| 20260905094103 | 78 | 204 | 0.0 | 0.0 | 0.00 | 0.06 | 0.00 | 96 | 1010.8 |
| 20260905094004 | 78 | 204 | 0.0 | 0.0 | 0.00 | 0.06 | 0.00 | 96 | 1010.7 |
| 20260905093902 | 78 | 204 | 0.0 | 0.0 | 0.00 | 0.06 | 0.00 | 96 | 1010.8 |
| 20260905093802 | 78 | 204 | 0.0 | 0.0 | 0.00 | 0.06 | 0.00 | 96 | 1010.7 |
| 20260905093702 | 78 | 204 | 0.0 | 0.0 | 0.00 | 0.06 | 0.00 | 96 | 1010.7 |
| 20260905093603 | 78 | 204 | 0.0 | 0.0 | 0.00 | 0.06 | 0.00 | 96 | 1010.7 |
| 20260905093502 | 78 | 204 | 0.0 | 0.0 | 0.00 | 0.06 | 0.00 | 96 | 1010.7 |
| 20260905093401 | 78 | 204 | 0.0 | 0.0 | 0.00 | 0.06 | 0.00 | 96 | 1010.6 |
| 20260905093334 | 78 | 204 | 0.0 | 0.0 | 0.00 | 0.06 | 0.00 | 96 | 1010.7 |
| 20260905093203 | 78 | 204 | 0.0 | 0.0 | 0.00 | 0.06 | 0.00 | 96 | 1010.7 |
| 20260905093102 | 78 | 204 | 0.0 | 0.0 | 0.00 | 0.06 | 0.00 | 96 | 1010.7 |
| 20260905093002 | 78 | 204 | 0.0 | 0.0 | 0.00 | 0.06 | 0.00 | 96 | 1010.7 |
| 20260905092902 | 78 | 204 | 0.0 | 0.0 | 0.00 | 0.06 | 0.00 | 96 | 1010.7 |
| 20260905092804 | 78 | 204 | 0.0 | 0.0 | 0.00 | 0.06 | 0.00 | 96 | 1010.8 |
| 20260905092703 | 78 | 204 | 0.0 | 0.0 | 0.00 | 0.06 | 0.00 | 96 | 1010.7 |
| 20260905092603 | 78 | 204 | 0.0 | 0.0 | 0.00 | 0.06 | 0.00 | 96 | 1010.7 |
| 20260905092502 | 78 | 204 | 0.0 | 0.0 | 0.00 | 0.06 | 0.00 | 96 | 1010.7 |
| 20260905092401 | 78 | 204 | 0.0 | 0.0 | 0.00 | 0.06 | 0.00 | 96 | 1010.8 |
| 20260905092300 | 78 | 204 | 0.0 | 0.0 | 0.00 | 0.06 | 0.00 | 96 | 1010.7 |
| 20260905092200 | 78 | 204 | 0.0 | 0.0 | 0.00 | 0.06 | 0.00 | 96 | 1010.7 |
| 20260905092101 | 78 | 204 | 0.0 | 0.0 | 0.00 | 0.06 | 0.00 | 96 | 1010.8 |
| 20260905092001 | 78 | 204 | 0.0 | 0.0 | 0.00 | 0.06 | 0.00 | 96 | 1010.7 |
| 20260905091857 | 78 | 204 | 0.0 | 0.0 | 0.00 | 0.06 | 0.00 | 96 | 1010.8 |
| 20260905091756 | 78 | 204 | 0.0 | 0.0 | 0.00 | 0.06 | 0.00 | 96 | 1010.7 |
| 20260905091655 | 78 | 204 | 0.0 | 0.0 | 0.00 | 0.06 | 0.00 | 96 | 1010.8 |
| 20260905091554 | 78 | 204 | 0.0 | 0.0 | 0.00 | 0.06 | 0.00 | 96 | 1010.7 |
| 20260905091450 | 78 | 204 | 0.0 | 0.0 | 0.00 | 0.06 | 0.00 | 96 | 1010.7 |
| 20260905091351 | 78 | 204 | 0.0 | 0.0 | 0.00 | 0.06 | 0.00 | 96 | 1010.8 |
| 20260905091247 | 78 | 204 | 0.0 | 0.0 | 0.00 | 0.06 | 0.00 | 96 | 1010.8 |
| 20260905091147 | 78 | 204 | 0.0 | 0.0 | 0.00 | 0.06 | 0.00 | 96 | 1010.8 |
| 20260905091046 | 78 | 204 | 0.0 | 0.0 | 0.00 | 0.06 | 0.00 | 96 | 1010.8 |
| 20260905090944 | 78 | 204 | 0.0 | 0.0 | 0.00 | 0.06 | 0.00 | 96 | 1010.8 |
| 20260905090843 | 78 | 204 | 0.0 | 0.0 | 0.00 | 0.06 | 0.00 | 96 | 1010.8 |
| 20260905090741 | 78 | 204 | 0.0 | 0.0 | 0.00 | 0.06 | 0.00 | 96 | 1010.8 |
| 20260905090640 | 78 | 204 | 0.0 | 0.0 | 0.00 | 0.06 | 0.00 | 96 | 1010.8 |
| 20260905090538 | 78 | 204 | 0.0 | 0.0 | 0.00 | 0.06 | 0.00 | 96 | 1010.7 |
| 20260905090437 | 78 | 204 | 0.0 | 0.0 | 0.00 | 0.06 | 0.00 | 96 | 1010.8 |
| 20260905090332 | 78 | 204 | 0.0 | 0.0 | 0.00 | 0.06 | 0.00 | 96 | 1010.7 |
| 20260905090234 | 78 | 168 | 0.0 | 0.0 | 0.00 | 0.06 | 0.00 | 96 | 1010.7 |
| 20260905090132 | 78 | 168 | 0.0 | 0.0 | 0.00 | 0.06 | 0.00 | 96 | 1010.8 |
| 20260905090032 | 78 | 168 | 0.0 | 0.0 | 0.00 | 0.06 | 0.00 | 96 | 1010.7 |
| 20260905085932 | 78 | 168 | 0.0 | 0.0 | 0.00 | 0.06 | 0.00 | 96 | 1010.7 |
| 20260905085832 | 78 | 168 | 0.0 | 0.0 | 0.00 | 0.06 | 0.00 | 96 | 1010.7 |
| 20260905085731 | 78 | 168 | 0.0 | 0.0 | 0.00 | 0.06 | 0.00 | 96 | 1010.8 |
| 20260905085631 | 78 | 168 | 0.0 | 0.0 | 0.00 | 0.06 | 0.00 | 96 | 1010.7 |
| 20260905085531 | 78 | 168 | 0.0 | 0.0 | 0.00 | 0.06 | 0.00 | 96 | 1010.7 |
| 20260905085433 | 78 | 168 | 0.0 | 0.0 | 0.00 | 0.06 | 0.00 | 96 | 1010.8 |
| 20260905085331 | 78 | 168 | 0.0 | 0.0 | 0.00 | 0.06 | 0.00 | 96 | 1010.8 |
| 20260905085232 | 78 | 168 | 0.0 | 0.0 | 0.00 | 0.06 | 0.00 | 96 | 1010.7 |
| 20260905085133 | 78 | 168 | 0.0 | 0.0 | 0.00 | 0.06 | 0.00 | 96 | 1010.8 |
| 20260905085032 | 78 | 168 | 0.0 | 0.0 | 0.00 | 0.06 | 0.00 | 96 | 1010.8 |
| 20260905084931 | 78 | 168 | 0.0 | 0.0 | 0.00 | 0.06 | 0.00 | 96 | 1010.8 |
| 20260905084832 | 78 | 168 | 0.0 | 0.9 | 0.00 | 0.06 | 0.00 | 96 | 1010.8 |
| 20260905084732 | 78 | 168 | 0.0 | 0.9 | 0.00 | 0.06 | 0.00 | 96 | 1010.8 |
| 20260905084630 | 78 | 168 | 0.0 | 1.7 | 0.00 | 0.06 | 0.00 | 96 | 1010.8 |
| 20260905084532 | 78 | 168 | 0.0 | 1.7 | 0.00 | 0.06 | 0.00 | 96 | 1010.8 |
| 20260905084432 | 78 | 168 | 0.0 | 1.7 | 0.00 | 0.06 | 0.00 | 96 | 1010.8 |
| 20260905084330 | 78 | 168 | 0.0 | 1.7 | 0.00 | 0.06 | 0.00 | 96 | 1010.7 |
| 20260905084228 | 78 | 168 | 0.0 | 1.7 | 0.00 | 0.06 | 0.00 | 96 | 1010.7 |
| 20260905084127 | 78 | 168 | 0.0 | 1.7 | 0.00 | 0.06 | 0.00 | 96 | 1010.6 |
| 20260905084027 | 78 | 168 | 0.0 | 1.7 | 0.00 | 0.06 | 0.00 | 95 | 1010.7 |
| 20260905083926 | 78 | 168 | 0.0 | 1.7 | 0.00 | 0.06 | 0.00 | 95 | 1010.6 |
| 20260905083824 | 78 | 168 | 0.9 | 1.7 | 0.00 | 0.06 | 0.00 | 95 | 1010.6 |
| 20260905083721 | 78 | 168 | 0.9 | 1.7 | 0.00 | 0.06 | 0.00 | 95 | 1010.6 |
| 20260905083621 | 78 | 168 | 0.9 | 1.7 | 0.00 | 0.06 | 0.00 | 95 | 1010.5 |
| 20260905083519 | 78 | 168 | 0.9 | 1.7 | 0.00 | 0.06 | 0.00 | 95 | 1010.6 |
| 20260905083415 | 78 | 168 | 0.0 | 0.9 | 0.00 | 0.06 | 0.00 | 95 | 1010.6 |
| 20260905083312 | 78 | 168 | 0.0 | 0.0 | 0.00 | 0.06 | 0.00 | 95 | 1010.6 |
| 20260905083211 | 78 | 168 | 0.0 | 0.0 | 0.00 | 0.06 | 0.00 | 95 | 1010.5 |
| 20260905083113 | 78 | 168 | 0.0 | 0.0 | 0.00 | 0.06 | 0.00 | 95 | 1010.5 |
| 20260905083013 | 78 | 168 | 0.0 | 0.0 | 0.00 | 0.06 | 0.00 | 95 | 1010.4 |
| 20260905082912 | 78 | 168 | 0.0 | 0.0 | 0.00 | 0.06 | 0.00 | 95 | 1010.4 |
| 20260905082811 | 78 | 168 | 0.0 | 0.0 | 0.00 | 0.06 | 0.00 | 95 | 1010.4 |
| 20260905082713 | 79 | 168 | 0.0 | 0.0 | 0.00 | 0.06 | 0.00 | 95 | 1010.4 |
| 20260905082611 | 79 | 169 | 0.0 | 0.0 | 0.00 | 0.06 | 0.00 | 95 | 1010.4 |
| 20260905082511 | 79 | 168 | 0.0 | 0.0 | 0.00 | 0.06 | 0.00 | 95 | 1010.3 |
| 20260905082413 | 79 | 168 | 0.0 | 0.0 | 0.00 | 0.06 | 0.00 | 95 | 1010.4 |
| 20260905082311 | 79 | 168 | 0.0 | 0.0 | 0.00 | 0.06 | 0.00 | 95 | 1010.4 |
| 20260905082212 | 79 | 168 | 0.0 | 0.0 | 0.00 | 0.06 | 0.00 | 95 | 1010.4 |
| 20260905082112 | 79 | 169 | 0.0 | 0.0 | 0.00 | 0.06 | 0.00 | 95 | 1010.4 |
| 20260905082012 | 79 | 169 | 0.0 | 0.0 | 0.00 | 0.06 | 0.00 | 95 | 1010.5 |
| 20260905081911 | 79 | 169 | 0.0 | 0.0 | 0.00 | 0.06 | 0.00 | 95 | 1010.4 |
| 20260905081814 | 79 | 169 | 0.0 | 0.0 | 0.00 | 0.06 | 0.00 | 95 | 1010.4 |
| 20260905081712 | 79 | 169 | 0.0 | 0.0 | 0.00 | 0.06 | 0.00 | 95 | 1010.4 |
| 20260905081612 | 79 | 169 | 0.0 | 0.0 | 0.00 | 0.06 | 0.00 | 95 | 1010.5 |
| 20260905081512 | 79 | 169 | 0.0 | 0.0 | 0.00 | 0.06 | 0.00 | 95 | 1010.4 |
| 20260905081412 | 79 | 169 | 0.0 | 0.0 | 0.00 | 0.06 | 0.00 | 95 | 1010.4 |
| 20260905081312 | 79 | 169 | 0.0 | 0.0 | 0.00 | 0.06 | 0.00 | 95 | 1010.5 |
| 20260905081211 | 79 | 169 | 0.0 | 0.0 | 0.00 | 0.06 | 0.00 | 95 | 1010.5 |
| 20260905081111 | 79 | 169 | 0.0 | 0.0 | 0.00 | 0.06 | 0.00 | 95 | 1010.5 |
| 20260905081012 | 79 | 169 | 0.0 | 0.0 | 0.00 | 0.06 | 0.00 | 95 | 1010.5 |
| 20260905080911 | 79 | 169 | 0.0 | 0.0 | 0.00 | 0.06 | 0.00 | 95 | 1010.5 |
| 20260905080813 | 79 | 169 | 0.0 | 0.0 | 0.00 | 0.06 | 0.00 | 95 | 1010.6 |
| 20260905080714 | 79 | 169 | 0.0 | 0.0 | 0.00 | 0.06 | 0.00 | 95 | 1010.5 |
| 20260905080611 | 79 | 169 | 0.0 | 0.0 | 0.00 | 0.06 | 0.00 | 95 | 1010.6 |
| 20260905080512 | 79 | 169 | 0.0 | 0.0 | 0.00 | 0.06 | 0.00 | 95 | 1010.6 |
| 20260905080413 | 79 | 169 | 0.0 | 0.0 | 0.00 | 0.06 | 0.00 | 95 | 1010.6 |
| 20260905080312 | 79 | 169 | 0.0 | 0.0 | 0.00 | 0.06 | 0.00 | 95 | 1010.5 |
| 20260905080212 | 79 | 169 | 0.0 | 0.0 | 0.00 | 0.06 | 0.00 | 95 | 1010.6 |
| 20260905080112 | 79 | 169 | 0.0 | 0.0 | 0.00 | 0.06 | 0.00 | 95 | 1010.6 |
| 20260905080012 | 79 | 169 | 0.0 | 0.0 | 0.00 | 0.06 | 0.00 | 95 | 1010.5 |
| 20260905075913 | 79 | 169 | 0.0 | 0.0 | 0.00 | 0.06 | 0.00 | 95 | 1010.4 |
| 20260905075811 | 79 | 169 | 0.0 | 0.0 | 0.00 | 0.06 | 0.00 | 95 | 1010.5 |
| 20260905075711 | 79 | 169 | 0.0 | 0.0 | 0.00 | 0.06 | 0.00 | 95 | 1010.5 |
| 20260905075613 | 79 | 169 | 0.0 | 0.0 | 0.00 | 0.06 | 0.00 | 95 | 1010.5 |
| 20260905075510 | 79 | 169 | 0.0 | 0.0 | 0.00 | 0.06 | 0.00 | 95 | 1010.5 |
| 20260905075412 | 79 | 169 | 0.0 | 0.0 | 0.00 | 0.06 | 0.00 | 95 | 1010.5 |
| 20260905075312 | 79 | 169 | 0.0 | 0.0 | 0.00 | 0.06 | 0.00 | 95 | 1010.6 |
| 20260905075212 | 79 | 169 | 0.0 | 0.0 | 0.00 | 0.06 | 0.00 | 95 | 1010.5 |
| 20260905075111 | 79 | 169 | 0.0 | 0.0 | 0.00 | 0.06 | 0.00 | 95 | 1010.5 |
| 20260905075011 | 79 | 169 | 0.0 | 0.0 | 0.00 | 0.06 | 0.00 | 95 | 1010.6 |
| 20260905074913 | 79 | 169 | 0.0 | 0.0 | 0.00 | 0.06 | 0.00 | 95 | 1010.6 |
| 20260905074811 | 79 | 169 | 0.0 | 0.0 | 0.00 | 0.06 | 0.00 | 95 | 1010.5 |
| 20260905074710 | 79 | 169 | 0.0 | 0.0 | 0.00 | 0.06 | 0.00 | 95 | 1010.5 |
| 20260905074610 | 79 | 169 | 0.0 | 0.0 | 0.00 | 0.06 | 0.00 | 94 | 1010.5 |
| 20260905074511 | 79 | 169 | 0.0 | 0.0 | 0.00 | 0.06 | 0.00 | 94 | 1010.5 |
| 20260905074410 | 79 | 169 | 0.0 | 0.0 | 0.00 | 0.06 | 0.00 | 94 | 1010.5 |
| 20260905074310 | 79 | 169 | 0.0 | 0.0 | 0.00 | 0.06 | 0.00 | 94 | 1010.6 |
| 20260905074211 | 79 | 169 | 0.0 | 0.0 | 0.00 | 0.06 | 0.00 | 94 | 1010.6 |
| 20260905074110 | 79 | 169 | 0.0 | 0.0 | 0.00 | 0.06 | 0.00 | 94 | 1010.6 |
| 20260905074010 | 79 | 169 | 0.0 | 0.0 | 0.00 | 0.06 | 0.00 | 94 | 1010.7 |
| 20260905073912 | 79 | 169 | 0.0 | 0.0 | 0.00 | 0.06 | 0.00 | 95 | 1010.6 |
| 20260905073811 | 79 | 169 | 0.0 | 0.0 | 0.00 | 0.06 | 0.00 | 94 | 1010.6 |
| 20260905073710 | 79 | 169 | 0.0 | 0.0 | 0.00 | 0.06 | 0.00 | 94 | 1010.5 |
| 20260905073610 | 79 | 169 | 0.0 | 0.0 | 0.00 | 0.06 | 0.00 | 94 | 1010.6 |
| 20260905073511 | 79 | 169 | 0.0 | 0.0 | 0.00 | 0.06 | 0.00 | 94 | 1010.6 |
| 20260905073411 | 79 | 169 | 0.0 | 0.0 | 0.00 | 0.06 | 0.00 | 94 | 1010.6 |
| 20260905073311 | 79 | 169 | 0.0 | 0.0 | 0.00 | 0.06 | 0.00 | 94 | 1010.6 |
| 20260905073211 | 79 | 169 | 0.0 | 0.0 | 0.00 | 0.06 | 0.00 | 94 | 1010.6 |
| 20260905073110 | 79 | 169 | 0.0 | 0.0 | 0.00 | 0.06 | 0.00 | 94 | 1010.7 |
| 20260905073010 | 79 | 169 | 0.0 | 0.0 | 0.00 | 0.06 | 0.00 | 94 | 1010.7 |
| 20260905072911 | 79 | 169 | 0.0 | 0.0 | 0.00 | 0.06 | 0.00 | 94 | 1010.8 |
| 20260905072811 | 79 | 169 | 0.0 | 0.0 | 0.00 | 0.06 | 0.00 | 94 | 1010.8 |
| 20260905072710 | 80 | 169 | 0.0 | 0.0 | 0.00 | 0.06 | 0.00 | 94 | 1010.8 |
| 20260905072610 | 80 | 169 | 0.0 | 0.0 | 0.00 | 0.06 | 0.00 | 94 | 1010.8 |
| 20260905072511 | 80 | 169 | 0.0 | 0.0 | 0.00 | 0.06 | 0.00 | 94 | 1010.8 |
| 20260905072411 | 80 | 169 | 0.0 | 0.0 | 0.00 | 0.06 | 0.00 | 94 | 1010.8 |
| 20260905072311 | 79 | 169 | 0.0 | 0.0 | 0.00 | 0.06 | 0.00 | 94 | 1010.8 |
| 20260905072211 | 79 | 169 | 0.0 | 0.0 | 0.00 | 0.06 | 0.00 | 94 | 1010.8 |
| 20260905072110 | 79 | 169 | 0.0 | 0.0 | 0.00 | 0.06 | 0.00 | 94 | 1010.9 |
| 20260905072010 | 79 | 169 | 0.0 | 0.0 | 0.00 | 0.06 | 0.00 | 94 | 1010.9 |
| 20260905071910 | 79 | 169 | 0.0 | 0.0 | 0.00 | 0.06 | 0.00 | 94 | 1011.0 |
| 20260905071811 | 79 | 169 | 0.0 | 0.0 | 0.00 | 0.06 | 0.00 | 94 | 1010.9 |
| 20260905071710 | 79 | 169 | 0.0 | 0.0 | 0.00 | 0.06 | 0.00 | 94 | 1010.9 |
| 20260905071610 | 80 | 169 | 0.0 | 0.0 | 0.00 | 0.06 | 0.00 | 94 | 1011.0 |
| 20260905071511 | 80 | 169 | 0.0 | 0.0 | 0.00 | 0.06 | 0.00 | 94 | 1011.0 |
| 20260905071410 | 80 | 169 | 0.0 | 0.0 | 0.00 | 0.06 | 0.00 | 94 | 1011.0 |
| 20260905071310 | 80 | 169 | 0.0 | 0.0 | 0.00 | 0.06 | 0.00 | 94 | 1011.0 |
| 20260905071209 | 80 | 169 | 0.0 | 0.0 | 0.00 | 0.06 | 0.00 | 94 | 1011.0 |
| 20260905071111 | 80 | 169 | 0.0 | 0.0 | 0.00 | 0.06 | 0.00 | 94 | 1011.0 |
| 20260905071011 | 80 | 169 | 0.0 | 0.0 | 0.00 | 0.06 | 0.00 | 94 | 1011.1 |
| 20260905070910 | 80 | 169 | 0.0 | 0.0 | 0.00 | 0.06 | 0.00 | 94 | 1011.0 |
| 20260905070811 | 80 | 169 | 0.0 | 0.0 | 0.00 | 0.06 | 0.00 | 94 | 1011.0 |
| 20260905070711 | 80 | 169 | 0.0 | 0.0 | 0.00 | 0.06 | 0.00 | 94 | 1011.1 |
| 20260905070611 | 80 | 169 | 0.0 | 0.0 | 0.00 | 0.06 | 0.00 | 94 | 1011.1 |
| 20260905070510 | 80 | 169 | 0.0 | 0.0 | 0.00 | 0.06 | 0.00 | 94 | 1011.0 |
| 20260905070411 | 80 | 169 | 0.0 | 0.0 | 0.00 | 0.06 | 0.00 | 94 | 1011.0 |
| 20260905070311 | 80 | 169 | 0.0 | 0.0 | 0.00 | 0.06 | 0.00 | 94 | 1011.0 |
| 20260905070209 | 80 | 169 | 0.0 | 0.0 | 0.00 | 0.06 | 0.00 | 94 | 1011.1 |
| 20260905070109 | 80 | 169 | 0.0 | 0.0 | 0.00 | 0.06 | 0.00 | 93 | 1011.1 |
| 20260905070011 | 80 | 169 | 0.0 | 0.0 | 0.00 | 0.06 | 0.00 | 93 | 1011.1 |
| 20260905065910 | 80 | 169 | 0.0 | 0.0 | 0.00 | 0.06 | 0.00 | 93 | 1011.1 |
| 20260905065810 | 80 | 169 | 0.0 | 0.0 | 0.00 | 0.06 | 0.00 | 93 | 1011.1 |
| 20260905065711 | 80 | 169 | 0.0 | 0.0 | 0.00 | 0.06 | 0.00 | 93 | 1011.1 |
| 20260905065609 | 80 | 169 | 0.0 | 0.0 | 0.00 | 0.06 | 0.00 | 93 | 1011.1 |
| 20260905065509 | 80 | 169 | 0.0 | 0.0 | 0.00 | 0.06 | 0.00 | 93 | 1011.1 |
| 20260905065410 | 80 | 169 | 0.0 | 0.0 | 0.00 | 0.06 | 0.00 | 93 | 1011.1 |
| 20260905065310 | 80 | 169 | 0.0 | 0.0 | 0.00 | 0.06 | 0.00 | 93 | 1011.2 |
| 20260905065210 | 80 | 169 | 0.0 | 0.0 | 0.00 | 0.06 | 0.00 | 93 | 1011.2 |
| 20260905065110 | 80 | 169 | 0.0 | 0.0 | 0.00 | 0.06 | 0.00 | 93 | 1011.2 |
| 20260905065010 | 80 | 169 | 0.0 | 0.0 | 0.00 | 0.06 | 0.00 | 93 | 1011.1 |
| 20260905064910 | 80 | 169 | 0.0 | 0.0 | 0.00 | 0.06 | 0.00 | 93 | 1011.1 |
| 20260905064810 | 80 | 169 | 0.0 | 0.0 | 0.00 | 0.06 | 0.00 | 93 | 1011.1 |
| 20260905064710 | 80 | 169 | 0.0 | 0.0 | 0.00 | 0.06 | 0.00 | 93 | 1011.2 |
| 20260905064609 | 80 | 169 | 0.0 | 0.0 | 0.00 | 0.06 | 0.00 | 93 | 1011.1 |
| 20260905064509 | 80 | 169 | 0.0 | 0.0 | 0.00 | 0.06 | 0.00 | 93 | 1011.2 |
| 20260905064409 | 80 | 169 | 0.0 | 0.0 | 0.00 | 0.06 | 0.00 | 93 | 1011.1 |
| 20260905064311 | 80 | 169 | 0.0 | 0.0 | 0.00 | 0.06 | 0.00 | 93 | 1011.1 |
| 20260905064209 | 80 | 169 | 0.0 | 0.0 | 0.00 | 0.06 | 0.00 | 93 | 1011.2 |
| 20260905064110 | 80 | 169 | 0.0 | 0.0 | 0.00 | 0.06 | 0.00 | 93 | 1011.3 |
| 20260905064011 | 80 | 169 | 0.0 | 0.0 | 0.00 | 0.06 | 0.00 | 93 | 1011.2 |
| 20260905063909 | 80 | 169 | 0.0 | 0.0 | 0.00 | 0.06 | 0.00 | 93 | 1011.3 |
| 20260905063809 | 80 | 169 | 0.0 | 0.0 | 0.00 | 0.06 | 0.00 | 93 | 1011.3 |
| 20260905063709 | 80 | 169 | 0.0 | 0.0 | 0.00 | 0.06 | 0.00 | 93 | 1011.2 |
| 20260905063610 | 80 | 169 | 0.0 | 0.0 | 0.00 | 0.06 | 0.00 | 93 | 1011.2 |
| 20260905063509 | 80 | 169 | 0.0 | 0.0 | 0.00 | 0.06 | 0.00 | 93 | 1011.2 |
| 20260905063409 | 80 | 169 | 0.0 | 0.0 | 0.00 | 0.06 | 0.00 | 92 | 1011.2 |
| 20260905063310 | 80 | 169 | 0.0 | 0.0 | 0.00 | 0.06 | 0.00 | 92 | 1011.2 |
| 20260905063210 | 80 | 169 | 0.0 | 0.0 | 0.00 | 0.06 | 0.00 | 92 | 1011.3 |
| 20260905063110 | 80 | 169 | 0.0 | 0.0 | 0.00 | 0.06 | 0.00 | 92 | 1011.3 |
| 20260905063011 | 80 | 169 | 0.0 | 0.0 | 0.00 | 0.06 | 0.00 | 92 | 1011.3 |
| 20260905062910 | 80 | 169 | 0.0 | 0.0 | 0.00 | 0.06 | 0.00 | 92 | 1011.3 |
| 20260905062809 | 80 | 169 | 0.0 | 0.0 | 0.00 | 0.06 | 0.00 | 92 | 1011.3 |
| 20260905062708 | 80 | 169 | 0.0 | 0.0 | 0.00 | 0.06 | 0.00 | 92 | 1011.4 |
| 20260905062610 | 80 | 169 | 0.0 | 0.0 | 0.00 | 0.06 | 0.00 | 92 | 1011.4 |
| 20260905062510 | 80 | 169 | 0.0 | 0.0 | 0.00 | 0.06 | 0.00 | 92 | 1011.3 |
| 20260905062408 | 80 | 169 | 0.0 | 0.0 | 0.00 | 0.06 | 0.00 | 92 | 1011.3 |
| 20260905062306 | 80 | 169 | 0.0 | 0.0 | 0.00 | 0.06 | 0.00 | 92 | 1011.4 |
| 20260905062205 | 80 | 169 | 0.0 | 0.0 | 0.00 | 0.06 | 0.00 | 92 | 1011.3 |
| 20260905062104 | 80 | 157 | 0.0 | 0.0 | 0.00 | 0.06 | 0.00 | 92 | 1011.4 |
| 20260905062003 | 80 | 164 | 0.0 | 0.0 | 0.00 | 0.06 | 0.00 | 92 | 1011.4 |
| 20260905061902 | 81 | 165 | 0.0 | 0.0 | 0.00 | 0.06 | 0.00 | 92 | 1011.4 |
| 20260905061803 | 81 | 165 | 0.0 | 0.0 | 0.00 | 0.06 | 0.00 | 92 | 1011.3 |
| 20260905061702 | 81 | 166 | 0.0 | 0.0 | 0.00 | 0.06 | 0.00 | 92 | 1011.3 |
| 20260905061604 | 81 | 166 | 0.0 | 0.0 | 0.00 | 0.06 | 0.00 | 91 | 1011.3 |
| 20260905061504 | 81 | 166 | 0.0 | 0.0 | 0.00 | 0.06 | 0.00 | 91 | 1011.3 |
| 20260905061402 | 81 | 168 | 0.0 | 0.0 | 0.00 | 0.06 | 0.00 | 91 | 1011.3 |
| 20260905061303 | 81 | 168 | 0.0 | 0.0 | 0.00 | 0.06 | 0.00 | 91 | 1011.3 |
| 20260905061202 | 81 | 168 | 0.0 | 0.0 | 0.00 | 0.06 | 0.00 | 91 | 1011.4 |
| 20260905061102 | 81 | 168 | 0.0 | 0.0 | 0.00 | 0.06 | 0.00 | 91 | 1011.3 |
| 20260905061004 | 81 | 168 | 0.0 | 0.0 | 0.00 | 0.06 | 0.00 | 91 | 1011.5 |
| 20260905060901 | 81 | 168 | 0.0 | 0.0 | 0.00 | 0.06 | 0.00 | 91 | 1011.4 |
| 20260905060803 | 81 | 168 | 0.0 | 0.0 | 0.00 | 0.06 | 0.00 | 91 | 1011.4 |
| 20260905060703 | 81 | 168 | 0.0 | 0.0 | 0.00 | 0.06 | 0.00 | 91 | 1011.4 |
| 20260905060602 | 81 | 168 | 0.0 | 0.0 | 0.00 | 0.06 | 0.00 | 91 | 1011.4 |
| 20260905060502 | 81 | 168 | 0.0 | 0.0 | 0.00 | 0.06 | 0.00 | 91 | 1011.4 |
| 20260905060403 | 81 | 168 | 0.0 | 0.0 | 0.00 | 0.06 | 0.00 | 91 | 1011.5 |
| 20260905060303 | 81 | 168 | 0.0 | 0.0 | 0.00 | 0.06 | 0.00 | 91 | 1011.3 |
| 20260905060202 | 81 | 168 | 0.0 | 0.0 | 0.00 | 0.06 | 0.00 | 91 | 1011.3 |
| 20260905060002 | 81 | 168 | 0.0 | 0.0 | 0.00 | 0.06 | 0.00 | 91 | 1011.4 |
| 20260905055903 | 81 | 169 | 0.0 | 0.0 | 0.00 | 0.06 | 0.00 | 90 | 1011.2 |
| 20260905055803 | 81 | 169 | 0.0 | 0.0 | 0.00 | 0.06 | 0.00 | 90 | 1011.3 |
| 20260905055702 | 81 | 169 | 0.0 | 0.0 | 0.00 | 0.06 | 0.00 | 90 | 1011.3 |
| 20260905055602 | 81 | 169 | 0.0 | 0.0 | 0.00 | 0.06 | 0.00 | 90 | 1011.3 |
| 20260905055502 | 81 | 169 | 0.0 | 1.7 | 0.00 | 0.06 | 0.00 | 90 | 1011.3 |
| 20260905055402 | 81 | 169 | 0.0 | 1.7 | 0.00 | 0.06 | 0.00 | 90 | 1011.3 |
| 20260905055306 | 81 | 169 | 0.0 | 1.7 | 0.00 | 0.06 | 0.00 | 90 | 1011.3 |
| 20260905055202 | 81 | 169 | 0.0 | 1.7 | 0.00 | 0.06 | 0.00 | 90 | 1011.3 |
| 20260905055103 | 81 | 169 | 0.0 | 1.7 | 0.00 | 0.06 | 0.00 | 90 | 1011.3 |
| 20260905055004 | 82 | 169 | 0.0 | 1.7 | 0.00 | 0.06 | 0.00 | 90 | 1011.3 |
| 20260905054903 | 82 | 169 | 0.0 | 1.7 | 0.00 | 0.06 | 0.00 | 90 | 1011.3 |
| 20260905054802 | 82 | 169 | 0.0 | 1.7 | 0.00 | 0.06 | 0.00 | 90 | 1011.3 |
| 20260905054704 | 82 | 169 | 0.0 | 1.7 | 0.00 | 0.06 | 0.00 | 90 | 1011.3 |
| 20260905054602 | 82 | 169 | 0.0 | 1.7 | 0.00 | 0.06 | 0.00 | 90 | 1011.3 |
| 20260905054502 | 82 | 169 | 0.0 | 1.7 | 0.00 | 0.06 | 0.00 | 90 | 1011.3 |
| 20260905054403 | 82 | 169 | 0.0 | 1.7 | 0.00 | 0.06 | 0.00 | 90 | 1011.3 |
| 20260905054301 | 82 | 169 | 0.0 | 1.7 | 0.00 | 0.06 | 0.00 | 90 | 1011.3 |
| 20260905054201 | 82 | 169 | 0.0 | 1.7 | 0.00 | 0.06 | 0.00 | 90 | 1011.3 |
| 20260905054104 | 82 | 169 | 0.0 | 2.6 | 0.00 | 0.06 | 0.00 | 90 | 1011.3 |
| 20260905054005 | 82 | 169 | 0.0 | 2.6 | 0.00 | 0.06 | 0.00 | 89 | 1011.3 |
| 20260905053903 | 82 | 169 | 0.0 | 2.6 | 0.00 | 0.06 | 0.00 | 90 | 1011.4 |
| 20260905053803 | 82 | 169 | 0.0 | 2.6 | 0.00 | 0.06 | 0.00 | 89 | 1011.3 |
| 20260905053703 | 82 | 169 | 0.0 | 2.6 | 0.00 | 0.06 | 0.00 | 89 | 1011.3 |
| 20260905053603 | 82 | 169 | 0.0 | 2.6 | 0.00 | 0.06 | 0.00 | 89 | 1011.3 |
| 20260905053504 | 82 | 169 | 0.0 | 2.6 | 0.00 | 0.06 | 0.00 | 89 | 1011.3 |
| 20260905053403 | 82 | 169 | 0.0 | 2.6 | 0.00 | 0.06 | 0.00 | 89 | 1011.3 |
| 20260905053302 | 82 | 169 | 0.9 | 3.5 | 0.00 | 0.06 | 0.00 | 89 | 1011.4 |
| 20260905053202 | 82 | 169 | 1.7 | 3.5 | 0.00 | 0.06 | 0.00 | 89 | 1011.3 |
| 20260905053103 | 82 | 172 | 0.9 | 3.5 | 0.00 | 0.06 | 0.00 | 89 | 1011.4 |
| 20260905053004 | 82 | 172 | 0.9 | 3.5 | 0.00 | 0.06 | 0.00 | 89 | 1011.4 |
| 20260905052902 | 82 | 175 | 1.7 | 3.5 | 0.00 | 0.06 | 0.00 | 89 | 1011.4 |
| 20260905052802 | 82 | 180 | 0.9 | 3.5 | 0.00 | 0.06 | 0.00 | 89 | 1011.4 |
| 20260905052704 | 82 | 182 | 1.7 | 3.5 | 0.00 | 0.06 | 0.00 | 89 | 1011.3 |
| 20260905052602 | 82 | 171 | 1.7 | 3.5 | 0.00 | 0.06 | 0.00 | 89 | 1011.4 |
| 20260905052502 | 82 | 195 | 1.7 | 3.5 | 0.00 | 0.06 | 0.00 | 89 | 1011.3 |
| 20260905052402 | 82 | 190 | 1.7 | 3.5 | 0.00 | 0.06 | 0.00 | 89 | 1011.4 |
| 20260905052306 | 82 | 178 | 2.6 | 3.5 | 0.00 | 0.06 | 0.00 | 89 | 1011.4 |
| 20260905052202 | 82 | 189 | 1.7 | 3.5 | 0.00 | 0.06 | 0.00 | 89 | 1011.4 |
| 20260905052102 | 82 | 179 | 1.7 | 3.5 | 0.00 | 0.06 | 0.00 | 89 | 1011.4 |
| 20260905052004 | 82 | 189 | 1.7 | 3.5 | 0.00 | 0.06 | 0.00 | 89 | 1011.5 |
| 20260905051902 | 82 | 183 | 1.7 | 3.5 | 0.00 | 0.06 | 0.00 | 89 | 1011.4 |
| 20260905051802 | 82 | 179 | 0.0 | 2.6 | 0.00 | 0.06 | 0.00 | 89 | 1011.4 |
| 20260905051702 | 82 | 188 | 0.0 | 4.3 | 0.00 | 0.06 | 0.00 | 89 | 1011.4 |
| 20260905051602 | 82 | 188 | 0.9 | 4.3 | 0.00 | 0.06 | 0.00 | 89 | 1011.4 |
| 20260905051502 | 82 | 195 | 1.7 | 4.3 | 0.00 | 0.06 | 0.00 | 89 | 1011.5 |
| 20260905051402 | 82 | 195 | 1.7 | 4.3 | 0.00 | 0.06 | 0.00 | 89 | 1011.5 |
| 20260905051303 | 82 | 195 | 0.9 | 4.3 | 0.00 | 0.06 | 0.00 | 89 | 1011.4 |
| 20260905051202 | 82 | 195 | 0.9 | 4.3 | 0.00 | 0.06 | 0.00 | 89 | 1011.4 |
| 20260905051102 | 82 | 195 | 0.9 | 4.3 | 0.00 | 0.06 | 0.00 | 89 | 1011.4 |
| 20260905051003 | 82 | 193 | 0.9 | 4.3 | 0.00 | 0.06 | 0.00 | 89 | 1011.3 |
| 20260905050903 | 82 | 195 | 1.7 | 4.3 | 0.00 | 0.06 | 0.00 | 89 | 1011.4 |
| 20260905050802 | 82 | 195 | 2.6 | 4.3 | 0.00 | 0.06 | 0.00 | 89 | 1011.4 |
| 20260905050702 | 82 | 193 | 2.6 | 4.3 | 0.00 | 0.06 | 0.00 | 89 | 1011.4 |
| 20260905050603 | 82 | 195 | 2.6 | 4.3 | 0.00 | 0.06 | 0.00 | 89 | 1011.3 |
| 20260905050502 | 82 | 204 | 2.6 | 3.5 | 0.00 | 0.06 | 0.00 | 89 | 1011.4 |
| 20260905050402 | 82 | 206 | 1.7 | 4.3 | 0.00 | 0.06 | 0.00 | 89 | 1011.3 |
| 20260905050303 | 82 | 199 | 0.9 | 4.3 | 0.00 | 0.06 | 0.00 | 88 | 1011.4 |
| 20260905050202 | 82 | 199 | 0.9 | 4.3 | 0.00 | 0.06 | 0.00 | 88 | 1011.3 |
| 20260905050003 | 82 | 185 | 0.9 | 4.3 | 0.00 | 0.06 | 0.00 | 88 | 1011.3 |
| 20260905045903 | 82 | 185 | 0.9 | 4.3 | 0.00 | 0.06 | 0.06 | 88 | 1011.3 |
| 20260905045802 | 82 | 182 | 0.9 | 4.3 | 0.00 | 0.06 | 0.06 | 88 | 1011.3 |
| 20260905045702 | 82 | 202 | 0.9 | 4.3 | 0.00 | 0.06 | 0.06 | 88 | 1011.3 |
| 20260905045604 | 82 | 202 | 1.7 | 4.3 | 0.00 | 0.06 | 0.06 | 88 | 1011.2 |
| 20260905045502 | 82 | 203 | 2.6 | 4.3 | 0.00 | 0.06 | 0.06 | 88 | 1011.2 |
| 20260905045403 | 82 | 180 | 2.6 | 4.3 | 0.00 | 0.06 | 0.06 | 88 | 1011.3 |
| 20260905045305 | 82 | 188 | 2.6 | 4.3 | 0.00 | 0.06 | 0.06 | 88 | 1011.3 |
| 20260905045202 | 82 | 193 | 2.6 | 4.3 | 0.00 | 0.06 | 0.06 | 88 | 1011.3 |
| 20260905045102 | 82 | 149 | 2.6 | 4.3 | 0.00 | 0.06 | 0.06 | 88 | 1011.2 |
| 20260905044959 | 82 | 200 | 1.7 | 4.3 | 0.00 | 0.06 | 0.06 | 88 | 1011.2 |
| 20260905044858 | 82 | 192 | 2.6 | 4.3 | 0.00 | 0.06 | 0.06 | 88 | 1011.2 |
| 20260905044756 | 82 | 182 | 1.7 | 4.3 | 0.00 | 0.06 | 0.06 | 88 | 1011.3 |
| 20260905044655 | 82 | 169 | 1.7 | 4.3 | 0.00 | 0.06 | 0.06 | 88 | 1011.1 |
| 20260905044554 | 82 | 188 | 1.7 | 4.3 | 0.00 | 0.06 | 0.06 | 88 | 1011.2 |
| 20260905044452 | 82 | 123 | 1.7 | 4.3 | 0.00 | 0.06 | 0.06 | 88 | 1011.3 |
| 20260905044350 | 82 | 180 | 1.7 | 5.2 | 0.00 | 0.06 | 0.06 | 88 | 1011.2 |
| 20260905044248 | 83 | 193 | 0.0 | 5.2 | 0.00 | 0.06 | 0.06 | 88 | 1011.2 |
| 20260905044147 | 83 | 216 | 1.7 | 5.2 | 0.00 | 0.06 | 0.06 | 88 | 1011.2 |
| 20260905044046 | 83 | 168 | 1.7 | 5.2 | 0.00 | 0.06 | 0.06 | 88 | 1011.3 |
| 20260905043943 | 83 | 179 | 1.7 | 5.2 | 0.00 | 0.06 | 0.06 | 88 | 1011.2 |
| 20260905043842 | 83 | 165 | 1.7 | 5.2 | 0.00 | 0.06 | 0.06 | 88 | 1011.3 |
| 20260905043737 | 82 | 168 | 1.7 | 5.2 | 0.00 | 0.06 | 0.06 | 88 | 1011.3 |
| 20260905043637 | 82 | 157 | 2.6 | 5.2 | 0.00 | 0.06 | 0.06 | 88 | 1011.2 |
| 20260905043535 | 82 | 116 | 1.7 | 5.2 | 0.00 | 0.06 | 0.06 | 88 | 1011.3 |
| 20260905043433 | 82 | 142 | 1.7 | 5.2 | 0.00 | 0.06 | 0.06 | 88 | 1011.3 |
| 20260905043330 | 82 | 141 | 1.7 | 5.2 | 0.00 | 0.06 | 0.06 | 88 | 1011.3 |
| 20260905043232 | 83 | 135 | 3.5 | 5.2 | 0.00 | 0.06 | 0.06 | 88 | 1011.3 |
| 20260905043132 | 83 | 176 | 2.6 | 5.2 | 0.00 | 0.06 | 0.06 | 88 | 1011.3 |
| 20260905043031 | 83 | 149 | 1.7 | 5.2 | 0.00 | 0.06 | 0.06 | 88 | 1011.4 |
| 20260905042931 | 83 | 161 | 1.7 | 5.2 | 0.00 | 0.06 | 0.06 | 88 | 1011.3 |
| 20260905042832 | 83 | 157 | 1.7 | 5.2 | 0.00 | 0.06 | 0.06 | 87 | 1011.4 |
| 20260905042731 | 83 | 165 | 1.7 | 5.2 | 0.00 | 0.06 | 0.06 | 87 | 1011.3 |
| 20260905042631 | 83 | 121 | 1.7 | 5.2 | 0.00 | 0.06 | 0.06 | 87 | 1011.4 |
| 20260905042531 | 83 | 180 | 2.6 | 5.2 | 0.00 | 0.06 | 0.06 | 87 | 1011.3 |
| 20260905042431 | 83 | 152 | 2.6 | 5.2 | 0.00 | 0.06 | 0.06 | 88 | 1011.2 |
| 20260905042331 | 83 | 193 | 1.7 | 4.3 | 0.00 | 0.06 | 0.06 | 87 | 1011.4 |
| 20260905042231 | 83 | 171 | 1.7 | 4.3 | 0.00 | 0.06 | 0.06 | 87 | 1011.3 |
| 20260905042132 | 83 | 178 | 1.7 | 4.3 | 0.00 | 0.06 | 0.06 | 87 | 1011.4 |
| 20260905042031 | 83 | 172 | 1.7 | 4.3 | 0.00 | 0.06 | 0.06 | 87 | 1011.4 |
| 20260905041931 | 83 | 196 | 1.7 | 4.3 | 0.00 | 0.06 | 0.06 | 87 | 1011.4 |
| 20260905041831 | 83 | 171 | 1.7 | 4.3 | 0.00 | 0.06 | 0.06 | 87 | 1011.4 |
| 20260905041732 | 83 | 149 | 1.7 | 4.3 | 0.00 | 0.06 | 0.06 | 87 | 1011.4 |
| 20260905041631 | 83 | 193 | 1.7 | 3.5 | 0.00 | 0.06 | 0.06 | 87 | 1011.5 |
| 20260905041531 | 83 | 147 | 1.7 | 3.5 | 0.00 | 0.06 | 0.06 | 87 | 1011.5 |
| 20260905041431 | 83 | 128 | 1.7 | 3.5 | 0.00 | 0.06 | 0.06 | 87 | 1011.5 |
| 20260905041331 | 82 | 128 | 0.9 | 3.5 | 0.00 | 0.06 | 0.06 | 87 | 1011.5 |
| 20260905041231 | 83 | 138 | 1.7 | 5.2 | 0.00 | 0.06 | 0.06 | 87 | 1011.5 |
| 20260905041132 | 83 | 137 | 1.7 | 5.2 | 0.00 | 0.06 | 0.06 | 87 | 1011.5 |
| 20260905041031 | 83 | 166 | 1.7 | 5.2 | 0.00 | 0.06 | 0.06 | 87 | 1011.5 |
| 20260905040932 | 83 | 157 | 1.7 | 5.2 | 0.00 | 0.06 | 0.06 | 87 | 1011.5 |
| 20260905040831 | 83 | 172 | 1.7 | 5.2 | 0.00 | 0.06 | 0.06 | 87 | 1011.5 |
| 20260905040732 | 83 | 142 | 1.7 | 5.2 | 0.00 | 0.06 | 0.06 | 87 | 1011.5 |
| 20260905040631 | 83 | 175 | 1.7 | 5.2 | 0.00 | 0.06 | 0.06 | 87 | 1011.5 |
| 20260905040531 | 83 | 121 | 1.7 | 5.2 | 0.00 | 0.06 | 0.06 | 87 | 1011.6 |
| 20260905040432 | 83 | 161 | 1.7 | 5.2 | 0.00 | 0.06 | 0.06 | 87 | 1011.5 |
| 20260905040332 | 83 | 149 | 1.7 | 5.2 | 0.00 | 0.06 | 0.06 | 87 | 1011.5 |
| 20260905040232 | 83 | 140 | 0.9 | 4.3 | 0.00 | 0.06 | 0.06 | 87 | 1011.5 |
| 20260905040131 | 83 | 131 | 0.9 | 4.3 | 0.00 | 0.06 | 0.06 | 87 | 1011.6 |
| 20260905040033 | 83 | 159 | 1.7 | 4.3 | 0.00 | 0.06 | 0.06 | 87 | 1011.5 |
| 20260905035933 | 83 | 147 | 0.9 | 4.3 | 0.00 | 0.06 | 0.06 | 87 | 1011.6 |
| 20260905035832 | 83 | 145 | 1.7 | 4.3 | 0.00 | 0.06 | 0.06 | 87 | 1011.6 |
| 20260905035733 | 83 | 188 | 1.7 | 4.3 | 0.00 | 0.06 | 0.06 | 87 | 1011.5 |
| 20260905035631 | 83 | 149 | 0.9 | 4.3 | 0.00 | 0.06 | 0.06 | 87 | 1011.6 |
| 20260905035531 | 83 | 164 | 1.7 | 4.3 | 0.00 | 0.06 | 0.06 | 87 | 1011.6 |
| 20260905035432 | 83 | 206 | 2.6 | 4.3 | 0.00 | 0.06 | 0.06 | 87 | 1011.6 |
| 20260905035332 | 83 | 171 | 1.7 | 3.5 | 0.00 | 0.06 | 0.06 | 87 | 1011.7 |
| 20260905035233 | 83 | 189 | 2.6 | 3.5 | 0.00 | 0.06 | 0.06 | 87 | 1011.6 |
| 20260905035133 | 83 | 157 | 1.7 | 3.5 | 0.00 | 0.06 | 0.06 | 87 | 1011.7 |
| 20260905035030 | 83 | 121 | 1.7 | 3.5 | 0.00 | 0.06 | 0.06 | 87 | 1011.7 |
| 20260905034931 | 83 | 159 | 1.7 | 3.5 | 0.00 | 0.06 | 0.06 | 87 | 1011.7 |
| 20260905034832 | 83 | 134 | 1.7 | 3.5 | 0.00 | 0.06 | 0.06 | 87 | 1011.7 |
| 20260905034732 | 83 | 141 | 1.7 | 3.5 | 0.00 | 0.06 | 0.06 | 87 | 1011.7 |
| 20260905034632 | 83 | 130 | 1.7 | 3.5 | 0.00 | 0.06 | 0.06 | 87 | 1011.7 |
| 20260905034532 | 83 | 145 | 1.7 | 3.5 | 0.00 | 0.06 | 0.06 | 87 | 1011.6 |
| 20260905034431 | 83 | 137 | 1.7 | 3.5 | 0.00 | 0.06 | 0.06 | 87 | 1011.6 |
| 20260905034333 | 83 | 140 | 1.7 | 3.5 | 0.00 | 0.06 | 0.06 | 87 | 1011.5 |
| 20260905034232 | 83 | 169 | 1.7 | 3.5 | 0.00 | 0.06 | 0.06 | 87 | 1011.6 |
| 20260905034131 | 83 | 166 | 0.9 | 3.5 | 0.00 | 0.06 | 0.06 | 87 | 1011.5 |
| 20260905034032 | 83 | 135 | 0.9 | 3.5 | 0.00 | 0.06 | 0.06 | 87 | 1011.5 |
| 20260905033931 | 83 | 134 | 0.9 | 3.5 | 0.00 | 0.06 | 0.06 | 87 | 1011.5 |
| 20260905033829 | 83 | 111 | 0.0 | 2.6 | 0.00 | 0.06 | 0.06 | 87 | 1011.6 |
| 20260905033728 | 83 | 111 | 0.0 | 2.6 | 0.00 | 0.06 | 0.06 | 87 | 1011.6 |
| 20260905033628 | 83 | 111 | 0.9 | 2.6 | 0.00 | 0.06 | 0.06 | 87 | 1011.6 |
| 20260905033523 | 83 | 111 | 1.7 | 2.6 | 0.00 | 0.06 | 0.06 | 87 | 1011.6 |
| 20260905033423 | 83 | 111 | 0.9 | 2.6 | 0.00 | 0.06 | 0.06 | 87 | 1011.6 |
| 20260905033322 | 83 | 111 | 0.9 | 2.6 | 0.00 | 0.06 | 0.06 | 87 | 1011.6 |
| 20260905033221 | 83 | 111 | 0.0 | 2.6 | 0.00 | 0.06 | 0.06 | 87 | 1011.6 |
| 20260905033115 | 83 | 111 | 0.9 | 2.6 | 0.00 | 0.06 | 0.06 | 87 | 1011.6 |
| 20260905033014 | 83 | 111 | 0.9 | 2.6 | 0.00 | 0.06 | 0.06 | 87 | 1011.6 |
| 20260905032913 | 83 | 111 | 0.9 | 2.6 | 0.00 | 0.06 | 0.06 | 87 | 1011.6 |
| 20260905032811 | 83 | 111 | 0.9 | 2.6 | 0.00 | 0.06 | 0.06 | 87 | 1011.6 |
| 20260905032709 | 83 | 111 | 1.7 | 2.6 | 0.00 | 0.06 | 0.06 | 87 | 1011.7 |
| 20260905032609 | 83 | 110 | 0.9 | 2.6 | 0.00 | 0.06 | 0.06 | 87 | 1011.7 |
| 20260905032507 | 83 | 94 | 0.0 | 2.6 | 0.00 | 0.06 | 0.06 | 87 | 1011.7 |
| 20260905032405 | 83 | 94 | 0.9 | 2.6 | 0.00 | 0.06 | 0.06 | 87 | 1011.7 |
| 20260905032306 | 83 | 94 | 0.9 | 2.6 | 0.00 | 0.06 | 0.06 | 87 | 1011.7 |
| 20260905032206 | 83 | 94 | 0.9 | 2.6 | 0.00 | 0.06 | 0.06 | 87 | 1011.8 |
| 20260905032104 | 83 | 92 | 0.9 | 2.6 | 0.00 | 0.06 | 0.06 | 87 | 1011.8 |
| 20260905032004 | 83 | 92 | 1.7 | 2.6 | 0.00 | 0.06 | 0.06 | 87 | 1011.8 |
| 20260905031904 | 83 | 89 | 0.9 | 1.7 | 0.00 | 0.06 | 0.06 | 87 | 1011.7 |
| 20260905031804 | 83 | 89 | 0.9 | 1.7 | 0.00 | 0.06 | 0.06 | 87 | 1011.7 |
| 20260905031704 | 83 | 89 | 0.9 | 1.7 | 0.00 | 0.06 | 0.06 | 87 | 1011.7 |
| 20260905031605 | 83 | 89 | 0.9 | 1.7 | 0.00 | 0.06 | 0.06 | 87 | 1011.8 |
| 20260905031506 | 82 | 89 | 0.9 | 1.7 | 0.00 | 0.06 | 0.06 | 87 | 1011.7 |
| 20260905031404 | 82 | 89 | 0.0 | 0.9 | 0.00 | 0.06 | 0.06 | 87 | 1011.6 |
| 20260905031304 | 82 | 87 | 0.0 | 0.9 | 0.00 | 0.06 | 0.06 | 87 | 1011.6 |
| 20260905031205 | 82 | 87 | 0.0 | 0.9 | 0.00 | 0.06 | 0.06 | 87 | 1011.6 |
| 20260905031104 | 82 | 87 | 0.0 | 0.9 | 0.00 | 0.06 | 0.06 | 87 | 1011.7 |
| 20260905031005 | 82 | 87 | 0.0 | 0.9 | 0.00 | 0.06 | 0.06 | 87 | 1011.7 |
| 20260905030904 | 82 | 87 | 0.0 | 0.9 | 0.00 | 0.06 | 0.06 | 87 | 1011.6 |
| 20260905030804 | 82 | 87 | 0.0 | 0.9 | 0.00 | 0.06 | 0.06 | 87 | 1011.7 |
| 20260905030704 | 82 | 87 | 0.0 | 0.9 | 0.00 | 0.06 | 0.06 | 87 | 1011.7 |
| 20260905030604 | 83 | 87 | 0.0 | 0.9 | 0.00 | 0.06 | 0.06 | 87 | 1011.7 |
| 20260905030504 | 83 | 87 | 0.0 | 1.7 | 0.00 | 0.06 | 0.06 | 87 | 1011.7 |
| 20260905030404 | 83 | 87 | 0.0 | 1.7 | 0.00 | 0.06 | 0.06 | 87 | 1011.7 |
| 20260905030304 | 83 | 87 | 0.0 | 1.7 | 0.00 | 0.06 | 0.06 | 86 | 1011.6 |
| 20260905030204 | 83 | 35 | 0.0 | 1.7 | 0.00 | 0.06 | 0.06 | 86 | 1011.7 |
| 20260905030104 | 83 | 35 | 0.0 | 1.7 | 0.00 | 0.06 | 0.06 | 86 | 1011.6 |
| 20260905030005 | 83 | 35 | 0.0 | 1.7 | 0.00 | 0.06 | 0.06 | 86 | 1011.5 |
| 20260905025904 | 83 | 35 | 0.0 | 1.7 | 0.00 | 0.06 | 0.06 | 86 | 1011.6 |
| 20260905025806 | 83 | 35 | 0.0 | 1.7 | 0.00 | 0.06 | 0.06 | 86 | 1011.6 |
| 20260905025704 | 83 | 35 | 0.0 | 1.7 | 0.01 | 0.06 | 0.06 | 86 | 1011.6 |
| 20260905025604 | 83 | 35 | 0.9 | 1.7 | 0.01 | 0.06 | 0.06 | 85 | 1011.6 |
| 20260905025504 | 83 | 35 | 0.0 | 1.7 | 0.01 | 0.06 | 0.06 | 86 | 1011.6 |
| 20260905025406 | 83 | 35 | 0.0 | 1.7 | 0.01 | 0.06 | 0.06 | 85 | 1011.5 |
| 20260905025306 | 83 | 35 | 0.0 | 1.7 | 0.01 | 0.06 | 0.06 | 86 | 1011.6 |
| 20260905025204 | 83 | 35 | 0.9 | 1.7 | 0.01 | 0.06 | 0.06 | 85 | 1011.6 |
| 20260905025105 | 83 | 35 | 0.9 | 1.7 | 0.01 | 0.06 | 0.06 | 85 | 1011.6 |
| 20260905025006 | 83 | 35 | 0.9 | 1.7 | 0.01 | 0.06 | 0.06 | 85 | 1011.6 |
| 20260905024904 | 83 | 35 | 0.0 | 1.7 | 0.01 | 0.06 | 0.06 | 85 | 1011.6 |
| 20260905024806 | 83 | 37 | 0.0 | 2.6 | 0.01 | 0.06 | 0.06 | 85 | 1011.6 |
| 20260905024704 | 84 | 38 | 0.0 | 2.6 | 0.01 | 0.06 | 0.06 | 84 | 1011.6 |
| 20260905024603 | 84 | 39 | 0.0 | 3.5 | 0.01 | 0.06 | 0.06 | 84 | 1011.5 |
| 20260905024506 | 84 | 41 | 0.0 | 3.5 | 0.01 | 0.06 | 0.06 | 83 | 1011.5 |
| 20260905024404 | 84 | 39 | 0.0 | 3.5 | 0.01 | 0.06 | 0.06 | 83 | 1011.4 |
| 20260905024304 | 84 | 39 | 0.0 | 3.5 | 0.01 | 0.06 | 0.06 | 83 | 1011.4 |
| 20260905024204 | 84 | 41 | 0.9 | 3.5 | 0.01 | 0.06 | 0.06 | 83 | 1011.4 |
| 20260905024104 | 84 | 41 | 0.9 | 3.5 | 0.01 | 0.06 | 0.06 | 83 | 1011.4 |
| 20260905024004 | 84 | 41 | 0.9 | 3.5 | 0.01 | 0.06 | 0.06 | 83 | 1011.4 |
| 20260905023903 | 84 | 41 | 1.7 | 3.5 | 0.01 | 0.06 | 0.06 | 83 | 1011.4 |
| 20260905023804 | 84 | 41 | 1.7 | 3.5 | 0.01 | 0.06 | 0.06 | 83 | 1011.4 |
| 20260905023704 | 84 | 39 | 2.6 | 3.5 | 0.01 | 0.06 | 0.06 | 83 | 1011.4 |
| 20260905023604 | 84 | 41 | 1.7 | 3.5 | 0.01 | 0.06 | 0.06 | 83 | 1011.3 |
| 20260905023505 | 84 | 41 | 1.7 | 3.5 | 0.01 | 0.06 | 0.06 | 83 | 1011.4 |
| 20260905023405 | 84 | 41 | 1.7 | 3.5 | 0.01 | 0.06 | 0.06 | 83 | 1011.4 |
| 20260905023304 | 84 | 41 | 1.7 | 3.5 | 0.01 | 0.06 | 0.06 | 83 | 1011.3 |
| 20260905023203 | 84 | 41 | 1.7 | 3.5 | 0.01 | 0.06 | 0.06 | 83 | 1011.3 |
| 20260905023103 | 84 | 42 | 1.7 | 3.5 | 0.01 | 0.06 | 0.06 | 83 | 1011.3 |
| 20260905023005 | 84 | 42 | 0.9 | 3.5 | 0.01 | 0.06 | 0.06 | 83 | 1011.3 |
| 20260905022904 | 84 | 42 | 0.0 | 3.5 | 0.01 | 0.06 | 0.06 | 82 | 1011.3 |
| 20260905022803 | 84 | 42 | 0.0 | 3.5 | 0.01 | 0.06 | 0.06 | 82 | 1011.3 |
| 20260905022705 | 84 | 42 | 0.0 | 3.5 | 0.01 | 0.06 | 0.06 | 82 | 1011.3 |
| 20260905022603 | 84 | 44 | 1.7 | 3.5 | 0.01 | 0.06 | 0.06 | 82 | 1011.3 |
| 20260905022504 | 84 | 42 | 1.7 | 3.5 | 0.01 | 0.06 | 0.06 | 82 | 1011.3 |
| 20260905022403 | 85 | 42 | 2.6 | 3.5 | 0.01 | 0.06 | 0.06 | 82 | 1011.3 |
| 20260905022306 | 85 | 44 | 2.6 | 3.5 | 0.01 | 0.06 | 0.06 | 82 | 1011.3 |
| 20260905022204 | 85 | 48 | 1.7 | 3.5 | 0.01 | 0.06 | 0.06 | 82 | 1011.2 |
| 20260905022103 | 85 | 39 | 2.6 | 3.5 | 0.01 | 0.06 | 0.06 | 81 | 1011.2 |
| 20260905022004 | 85 | 68 | 2.6 | 3.5 | 0.01 | 0.06 | 0.06 | 81 | 1011.2 |
| 20260905021904 | 85 | 51 | 2.6 | 4.3 | 0.01 | 0.06 | 0.06 | 81 | 1011.2 |
| 20260905021804 | 85 | 51 | 1.7 | 4.3 | 0.01 | 0.06 | 0.06 | 81 | 1011.2 |
| 20260905021703 | 85 | 52 | 1.7 | 4.3 | 0.01 | 0.06 | 0.06 | 81 | 1011.2 |
| 20260905021603 | 85 | 51 | 1.7 | 4.3 | 0.01 | 0.06 | 0.06 | 81 | 1011.2 |
| 20260905021504 | 85 | 52 | 1.7 | 4.3 | 0.01 | 0.06 | 0.06 | 81 | 1011.3 |
| 20260905021403 | 85 | 52 | 1.7 | 4.3 | 0.01 | 0.06 | 0.06 | 81 | 1011.2 |
| 20260905021304 | 85 | 52 | 1.7 | 4.3 | 0.01 | 0.06 | 0.06 | 81 | 1011.3 |
| 20260905021204 | 85 | 52 | 2.6 | 4.3 | 0.01 | 0.06 | 0.06 | 81 | 1011.2 |
| 20260905021103 | 85 | 51 | 2.6 | 5.2 | 0.01 | 0.06 | 0.06 | 81 | 1011.2 |
| 20260905021004 | 85 | 51 | 2.6 | 5.2 | 0.01 | 0.06 | 0.06 | 81 | 1011.2 |
| 20260905020904 | 85 | 56 | 1.7 | 5.2 | 0.01 | 0.06 | 0.06 | 81 | 1011.2 |
| 20260905020803 | 85 | 59 | 2.6 | 5.2 | 0.01 | 0.06 | 0.06 | 80 | 1011.2 |
| 20260905020703 | 85 | 59 | 2.6 | 5.2 | 0.01 | 0.06 | 0.06 | 80 | 1011.2 |
| 20260905020603 | 85 | 59 | 2.6 | 5.2 | 0.01 | 0.06 | 0.06 | 80 | 1011.2 |
| 20260905020504 | 85 | 59 | 2.6 | 5.2 | 0.01 | 0.06 | 0.06 | 80 | 1011.2 |
| 20260905020402 | 85 | 59 | 2.6 | 5.2 | 0.01 | 0.06 | 0.06 | 80 | 1011.1 |
| 20260905020302 | 85 | 59 | 3.5 | 5.2 | 0.01 | 0.06 | 0.06 | 80 | 1011.0 |
| 20260905020204 | 85 | 61 | 3.5 | 5.2 | 0.01 | 0.06 | 0.06 | 80 | 1011.1 |
| 20260905020104 | 85 | 59 | 2.6 | 5.2 | 0.01 | 0.06 | 0.06 | 80 | 1011.0 |
| 20260905020002 | 85 | 59 | 3.5 | 5.2 | 0.01 | 0.05 | 0.06 | 80 | 1011.0 |
| 20260905015903 | 85 | 62 | 4.3 | 5.2 | 0.01 | 0.05 | 0.06 | 80 | 1011.0 |
| 20260905015803 | 85 | 58 | 3.5 | 4.3 | 0.01 | 0.05 | 0.05 | 80 | 1011.1 |
| 20260905015703 | 85 | 61 | 3.5 | 4.3 | 0.00 | 0.05 | 0.05 | 80 | 1011.0 |
| 20260905015603 | 85 | 63 | 2.6 | 4.3 | 0.00 | 0.05 | 0.05 | 80 | 1011.0 |
| 20260905015504 | 85 | 52 | 2.6 | 4.3 | 0.00 | 0.05 | 0.05 | 80 | 1011.0 |
| 20260905015402 | 85 | 49 | 2.6 | 4.3 | 0.00 | 0.05 | 0.05 | 80 | 1010.9 |
| 20260905015306 | 85 | 55 | 2.6 | 4.3 | 0.00 | 0.05 | 0.05 | 80 | 1010.9 |
| 20260905015203 | 85 | 52 | 3.5 | 4.3 | 0.00 | 0.05 | 0.05 | 80 | 1010.9 |
| 20260905015102 | 85 | 56 | 2.6 | 4.3 | 0.00 | 0.05 | 0.05 | 80 | 1010.9 |
| 20260905015004 | 85 | 61 | 2.6 | 4.3 | 0.00 | 0.05 | 0.05 | 80 | 1010.9 |
| 20260905014902 | 85 | 61 | 3.5 | 4.3 | 0.00 | 0.05 | 0.05 | 80 | 1010.9 |
| 20260905014803 | 85 | 58 | 3.5 | 4.3 | 0.00 | 0.05 | 0.05 | 80 | 1010.9 |
| 20260905014702 | 85 | 62 | 3.5 | 4.3 | 0.00 | 0.05 | 0.05 | 80 | 1010.9 |
| 20260905014601 | 85 | 56 | 2.6 | 4.3 | 0.00 | 0.05 | 0.05 | 80 | 1010.8 |
| 20260905014500 | 85 | 55 | 2.6 | 4.3 | 0.00 | 0.05 | 0.05 | 80 | 1010.9 |
| 20260905014358 | 85 | 55 | 2.6 | 4.3 | 0.00 | 0.05 | 0.05 | 80 | 1010.9 |
| 20260905014258 | 85 | 58 | 2.6 | 4.3 | 0.00 | 0.05 | 0.05 | 80 | 1010.9 |
| 20260905014155 | 85 | 56 | 2.6 | 4.3 | 0.00 | 0.05 | 0.05 | 80 | 1010.9 |
| 20260905014056 | 85 | 59 | 3.5 | 4.3 | 0.00 | 0.05 | 0.05 | 80 | 1010.9 |
| 20260905013952 | 85 | 61 | 3.5 | 4.3 | 0.00 | 0.05 | 0.05 | 80 | 1010.9 |
| 20260905013852 | 85 | 61 | 3.5 | 4.3 | 0.00 | 0.05 | 0.05 | 80 | 1010.8 |
| 20260905013749 | 85 | 63 | 3.5 | 4.3 | 0.00 | 0.05 | 0.05 | 80 | 1010.8 |
| 20260905013648 | 85 | 61 | 2.6 | 4.3 | 0.00 | 0.05 | 0.05 | 80 | 1010.8 |
| 20260905013546 | 85 | 61 | 1.7 | 3.5 | 0.00 | 0.05 | 0.05 | 80 | 1010.8 |
| 20260905013446 | 85 | 59 | 2.6 | 3.5 | 0.00 | 0.05 | 0.05 | 80 | 1010.8 |
| 20260905013344 | 85 | 58 | 2.6 | 3.5 | 0.00 | 0.05 | 0.05 | 80 | 1010.8 |
| 20260905013243 | 85 | 56 | 2.6 | 3.5 | 0.00 | 0.05 | 0.05 | 80 | 1010.8 |
| 20260905013140 | 85 | 54 | 1.7 | 3.5 | 0.00 | 0.05 | 0.05 | 80 | 1010.8 |
| 20260905013039 | 85 | 52 | 1.7 | 3.5 | 0.00 | 0.05 | 0.05 | 80 | 1010.7 |
| 20260905012937 | 85 | 54 | 0.9 | 3.5 | 0.00 | 0.05 | 0.05 | 80 | 1010.7 |
| 20260905012836 | 85 | 54 | 0.0 | 3.5 | 0.00 | 0.05 | 0.05 | 80 | 1010.8 |
| 20260905012734 | 85 | 54 | 0.0 | 3.5 | 0.00 | 0.05 | 0.05 | 80 | 1010.8 |
| 20260905012633 | 85 | 52 | 0.0 | 3.5 | 0.00 | 0.05 | 0.05 | 80 | 1010.7 |
| 20260905012531 | 85 | 51 | 1.7 | 3.5 | 0.00 | 0.05 | 0.05 | 80 | 1010.7 |
| 20260905012431 | 85 | 49 | 0.9 | 3.5 | 0.00 | 0.05 | 0.05 | 80 | 1010.7 |
| 20260905012332 | 85 | 49 | 0.0 | 2.6 | 0.00 | 0.05 | 0.05 | 79 | 1010.8 |
| 20260905012229 | 85 | 49 | 0.0 | 2.6 | 0.00 | 0.05 | 0.05 | 79 | 1010.7 |
| 20260905012129 | 85 | 49 | 0.9 | 2.6 | 0.00 | 0.05 | 0.05 | 79 | 1010.7 |
| 20260905012025 | 85 | 48 | 1.7 | 2.6 | 0.00 | 0.05 | 0.05 | 79 | 1010.7 |
| 20260905011921 | 85 | 82 | 0.9 | 2.6 | 0.00 | 0.05 | 0.05 | 79 | 1010.7 |
| 20260905011819 | 85 | 82 | 0.9 | 3.5 | 0.00 | 0.05 | 0.05 | 79 | 1010.6 |
| 20260905011717 | 86 | 79 | 0.9 | 3.5 | 0.00 | 0.05 | 0.05 | 79 | 1010.7 |
| 20260905011616 | 86 | 79 | 0.9 | 3.5 | 0.00 | 0.05 | 0.05 | 79 | 1010.6 |
| 20260905011516 | 86 | 79 | 0.9 | 3.5 | 0.00 | 0.05 | 0.05 | 79 | 1010.7 |
| 20260905011412 | 86 | 79 | 0.9 | 3.5 | 0.00 | 0.05 | 0.05 | 79 | 1010.6 |
| 20260905011312 | 86 | 79 | 1.7 | 3.5 | 0.00 | 0.05 | 0.05 | 79 | 1010.5 |
| 20260905011210 | 86 | 79 | 1.7 | 3.5 | 0.00 | 0.05 | 0.05 | 79 | 1010.5 |
| 20260905011109 | 86 | 79 | 1.7 | 3.5 | 0.00 | 0.05 | 0.05 | 78 | 1010.6 |
| 20260905011004 | 86 | 79 | 1.7 | 3.5 | 0.00 | 0.05 | 0.05 | 78 | 1010.5 |
| 20260905010902 | 86 | 73 | 0.9 | 3.5 | 0.00 | 0.05 | 0.05 | 78 | 1010.5 |
| 20260905010801 | 86 | 75 | 0.9 | 3.5 | 0.00 | 0.05 | 0.05 | 78 | 1010.5 |
| 20260905010702 | 86 | 76 | 1.7 | 3.5 | 0.00 | 0.05 | 0.05 | 78 | 1010.5 |
| 20260905010602 | 86 | 75 | 1.7 | 5.2 | 0.00 | 0.05 | 0.05 | 78 | 1010.4 |
| 20260905010502 | 86 | 72 | 2.6 | 5.2 | 0.00 | 0.05 | 0.05 | 78 | 1010.4 |
| 20260905010403 | 86 | 85 | 1.7 | 5.2 | 0.00 | 0.05 | 0.05 | 78 | 1010.4 |
| 20260905010303 | 86 | 85 | 2.6 | 5.2 | 0.00 | 0.05 | 0.05 | 78 | 1010.4 |
| 20260905010202 | 86 | 82 | 2.6 | 5.2 | 0.00 | 0.05 | 0.05 | 78 | 1010.4 |
| 20260905010004 | 86 | 92 | 2.6 | 5.2 | 0.00 | 0.05 | 0.05 | 78 | 1010.4 |
| 20260905005903 | 86 | 92 | 2.6 | 5.2 | 0.00 | 0.05 | 0.05 | 78 | 1010.4 |
| 20260905005802 | 86 | 92 | 3.5 | 5.2 | 0.00 | 0.05 | 0.05 | 78 | 1010.4 |
| 20260905005703 | 86 | 103 | 3.5 | 5.2 | 0.00 | 0.05 | 0.05 | 78 | 1010.4 |
| 20260905005602 | 86 | 106 | 3.5 | 4.3 | 0.00 | 0.05 | 0.05 | 78 | 1010.3 |
| 20260905005501 | 86 | 93 | 3.5 | 4.3 | 0.00 | 0.05 | 0.05 | 78 | 1010.4 |
| 20260905005401 | 86 | 90 | 3.5 | 4.3 | 0.00 | 0.05 | 0.05 | 78 | 1010.4 |
| 20260905005306 | 86 | 97 | 3.5 | 4.3 | 0.00 | 0.05 | 0.05 | 78 | 1010.4 |
| 20260905005201 | 86 | 103 | 3.5 | 4.3 | 0.00 | 0.05 | 0.05 | 78 | 1010.4 |
| 20260905005101 | 86 | 107 | 3.5 | 4.3 | 0.00 | 0.05 | 0.05 | 78 | 1010.4 |
| 20260905005003 | 86 | 106 | 3.5 | 4.3 | 0.00 | 0.05 | 0.05 | 78 | 1010.4 |
| 20260905004903 | 86 | 100 | 1.7 | 4.3 | 0.00 | 0.05 | 0.05 | 78 | 1010.4 |
| 20260905004802 | 86 | 100 | 1.7 | 4.3 | 0.00 | 0.05 | 0.05 | 78 | 1010.4 |
| 20260905004703 | 86 | 100 | 1.7 | 4.3 | 0.00 | 0.05 | 0.05 | 78 | 1010.4 |
| 20260905004602 | 86 | 100 | 1.7 | 4.3 | 0.00 | 0.05 | 0.05 | 78 | 1010.5 |
| 20260905004501 | 86 | 90 | 1.7 | 3.5 | 0.00 | 0.05 | 0.05 | 79 | 1010.5 |
| 20260905004401 | 86 | 133 | 1.7 | 3.5 | 0.00 | 0.05 | 0.05 | 79 | 1010.5 |
| 20260905004302 | 86 | 173 | 1.7 | 4.3 | 0.00 | 0.05 | 0.05 | 79 | 1010.5 |
| 20260905004201 | 86 | 80 | 1.7 | 4.3 | 0.00 | 0.05 | 0.05 | 78 | 1010.5 |
| 20260905004102 | 86 | 83 | 1.7 | 4.3 | 0.00 | 0.05 | 0.05 | 78 | 1010.4 |
| 20260905004001 | 86 | 83 | 1.7 | 4.3 | 0.00 | 0.05 | 0.05 | 78 | 1010.4 |
| 20260905003903 | 87 | 137 | 1.7 | 4.3 | 0.00 | 0.05 | 0.05 | 78 | 1010.4 |
| 20260905003801 | 87 | 124 | 1.7 | 4.3 | 0.00 | 0.05 | 0.05 | 78 | 1010.3 |
| 20260905003701 | 87 | 97 | 1.7 | 5.2 | 0.00 | 0.05 | 0.05 | 78 | 1010.4 |
| 20260905003602 | 87 | 79 | 1.7 | 6.1 | 0.00 | 0.05 | 0.05 | 78 | 1010.4 |
| 20260905003502 | 87 | 78 | 2.6 | 6.1 | 0.00 | 0.05 | 0.05 | 78 | 1010.3 |
| 20260905003403 | 87 | 78 | 2.6 | 6.1 | 0.00 | 0.05 | 0.05 | 78 | 1010.3 |
| 20260905003301 | 87 | 68 | 2.6 | 6.1 | 0.00 | 0.05 | 0.05 | 79 | 1010.3 |
| 20260905003203 | 87 | 114 | 2.6 | 6.1 | 0.00 | 0.05 | 0.05 | 79 | 1010.3 |
| 20260905003100 | 87 | 109 | 2.6 | 6.1 | 0.00 | 0.05 | 0.05 | 79 | 1010.2 |
| 20260905003002 | 87 | 111 | 3.5 | 6.1 | 0.00 | 0.05 | 0.05 | 79 | 1010.2 |
| 20260905002900 | 86 | 109 | 3.5 | 6.1 | 0.00 | 0.05 | 0.05 | 79 | 1010.1 |
| 20260905002801 | 86 | 116 | 4.3 | 6.1 | 0.00 | 0.05 | 0.05 | 79 | 1010.0 |
| 20260905002701 | 86 | 109 | 4.3 | 6.1 | 0.00 | 0.05 | 0.05 | 80 | 1010.0 |
| 20260905002600 | 86 | 124 | 3.5 | 5.2 | 0.00 | 0.05 | 0.05 | 80 | 1010.0 |
| 20260905002502 | 86 | 97 | 3.5 | 5.2 | 0.00 | 0.05 | 0.05 | 81 | 1010.0 |
| 20260905002400 | 86 | 106 | 3.5 | 5.2 | 0.00 | 0.05 | 0.05 | 81 | 1009.9 |
| 20260905002259 | 86 | 90 | 2.6 | 4.3 | 0.00 | 0.05 | 0.05 | 82 | 1009.9 |
| 20260905002202 | 86 | 75 | 2.6 | 3.5 | 0.00 | 0.05 | 0.05 | 82 | 1009.9 |
| 20260905002101 | 86 | 45 | 2.6 | 3.5 | 0.00 | 0.05 | 0.05 | 82 | 1009.9 |
| 20260905002000 | 86 | 45 | 2.6 | 3.5 | 0.00 | 0.05 | 0.05 | 82 | 1009.9 |
| 20260905001901 | 86 | 45 | 2.6 | 3.5 | 0.00 | 0.05 | 0.05 | 82 | 1009.9 |
| 20260905001802 | 86 | 45 | 2.6 | 4.3 | 0.00 | 0.05 | 0.05 | 82 | 1009.9 |
| 20260905001700 | 86 | 44 | 2.6 | 4.3 | 0.00 | 0.05 | 0.05 | 82 | 1009.9 |
| 20260905001601 | 86 | 44 | 2.6 | 4.3 | 0.00 | 0.05 | 0.05 | 83 | 1009.9 |
| 20260905001502 | 86 | 42 | 2.6 | 4.3 | 0.00 | 0.05 | 0.05 | 83 | 1009.9 |
| 20260905001400 | 86 | 42 | 2.6 | 4.3 | 0.00 | 0.05 | 0.05 | 83 | 1009.9 |
| 20260905001300 | 86 | 42 | 1.7 | 4.3 | 0.00 | 0.05 | 0.05 | 83 | 1010.0 |
| 20260905001200 | 86 | 42 | 1.7 | 4.3 | 0.00 | 0.05 | 0.05 | 83 | 1010.0 |
| 20260905001101 | 86 | 42 | 2.6 | 4.3 | 0.00 | 0.05 | 0.05 | 83 | 1010.1 |
| 20260905001001 | 86 | 42 | 3.5 | 4.3 | 0.00 | 0.05 | 0.05 | 82 | 1010.0 |
| 20260905000901 | 86 | 41 | 3.5 | 4.3 | 0.00 | 0.05 | 0.05 | 82 | 1010.0 |
| 20260905000802 | 86 | 35 | 2.6 | 3.5 | 0.00 | 0.05 | 0.05 | 83 | 1010.0 |
| 20260905000701 | 86 | 24 | 2.6 | 3.5 | 0.00 | 0.05 | 0.05 | 83 | 1010.0 |
| 20260905000602 | 86 | 0 | 2.6 | 3.5 | 0.00 | 0.05 | 0.05 | 83 | 1010.0 |
| 20260905000500 | 86 | 0 | 1.7 | 2.6 | 0.00 | 0.05 | 0.05 | 83 | 1010.0 |
| 20260905000402 | 86 | 0 | 1.7 | 2.6 | 0.00 | 0.05 | 0.05 | 84 | 1010.1 |
| 20260905000303 | 86 | 0 | 1.7 | 2.6 | 0.00 | 0.05 | 0.05 | 84 | 1010.0 |
| 20260905000200 | 86 | 0 | 0.9 | 2.6 | 0.00 | 0.05 | 0.05 | 85 | 1010.1 |
| 20260905000001 | 86 | 0 | 1.7 | 2.6 | 0.00 | 0.05 | 0.05 | 85 | 1010.1 |
| 20260904235901 | 86 | 0 | 0.9 | 2.6 | 0.00 | 0.05 | 0.05 | 84 | 1010.1 |
| 20260904235802 | 86 | 0 | 0.9 | 2.6 | 0.00 | 0.05 | 0.05 | 84 | 1010.1 |
| 20260904235701 | 86 | 0 | 0.9 | 2.6 | 0.00 | 0.05 | 0.05 | 84 | 1010.1 |
| 20260904235559 | 86 | 0 | 1.7 | 2.6 | 0.00 | 0.05 | 0.05 | 84 | 1010.0 |
| 20260904235500 | 86 | 0 | 1.7 | 2.6 | 0.00 | 0.05 | 0.05 | 84 | 1010.1 |
| 20260904235401 | 86 | 0 | 1.7 | 2.6 | 0.00 | 0.05 | 0.05 | 84 | 1010.1 |
| 20260904235259 | 86 | 0 | 1.7 | 2.6 | 0.00 | 0.05 | 0.05 | 84 | 1010.1 |
| 20260904235201 | 86 | 0 | 1.7 | 2.6 | 0.00 | 0.05 | 0.05 | 84 | 1010.1 |
| 20260904235102 | 86 | 0 | 1.7 | 2.6 | 0.00 | 0.05 | 0.05 | 84 | 1010.0 |
| 20260904235000 | 86 | 0 | 1.7 | 2.6 | 0.00 | 0.05 | 0.05 | 84 | 1010.0 |
| 20260904234859 | 86 | 0 | 1.7 | 2.6 | 0.00 | 0.05 | 0.05 | 84 | 1010.0 |
| 20260904234800 | 86 | 0 | 1.7 | 2.6 | 0.00 | 0.05 | 0.05 | 84 | 1010.0 |
| 20260904234701 | 86 | 0 | 1.7 | 2.6 | 0.00 | 0.05 | 0.05 | 83 | 1009.9 |
| 20260904234601 | 86 | 0 | 1.7 | 2.6 | 0.00 | 0.05 | 0.05 | 83 | 1009.9 |
| 20260904234459 | 86 | 0 | 1.7 | 2.6 | 0.00 | 0.05 | 0.05 | 83 | 1009.9 |
| 20260904234400 | 87 | 0 | 1.7 | 2.6 | 0.00 | 0.05 | 0.05 | 82 | 1009.9 |
| 20260904234259 | 87 | 0 | 1.7 | 2.6 | 0.00 | 0.05 | 0.05 | 82 | 1010.0 |
| 20260904234159 | 87 | 0 | 1.7 | 2.6 | 0.00 | 0.05 | 0.05 | 82 | 1010.0 |
| 20260904234100 | 87 | 0 | 1.7 | 2.6 | 0.00 | 0.05 | 0.05 | 83 | 1010.0 |
| 20260904234001 | 87 | 0 | 1.7 | 2.6 | 0.00 | 0.05 | 0.05 | 82 | 1010.1 |
| 20260904233900 | 87 | 0 | 1.7 | 2.6 | 0.00 | 0.05 | 0.05 | 83 | 1010.1 |
| 20260904233800 | 87 | 0 | 1.7 | 2.6 | 0.00 | 0.05 | 0.05 | 83 | 1010.1 |
| 20260904233659 | 87 | 0 | 1.7 | 2.6 | 0.00 | 0.05 | 0.05 | 83 | 1010.1 |
| 20260904233600 | 87 | 0 | 1.7 | 2.6 | 0.00 | 0.05 | 0.05 | 82 | 1010.1 |
| 20260904233500 | 87 | 0 | 1.7 | 3.5 | 0.00 | 0.05 | 0.05 | 81 | 1010.2 |
| 20260904233400 | 87 | 0 | 1.7 | 3.5 | 0.00 | 0.05 | 0.05 | 81 | 1010.1 |
| 20260904233300 | 87 | 0 | 1.7 | 3.5 | 0.00 | 0.05 | 0.05 | 80 | 1010.1 |
| 20260904233200 | 87 | 0 | 1.7 | 3.5 | 0.00 | 0.05 | 0.05 | 80 | 1010.1 |
| 20260904233100 | 87 | 0 | 1.7 | 3.5 | 0.00 | 0.05 | 0.05 | 80 | 1010.2 |
| 20260904233000 | 87 | 0 | 1.7 | 3.5 | 0.00 | 0.05 | 0.05 | 81 | 1010.2 |
| 20260904232900 | 87 | 0 | 1.7 | 3.5 | 0.00 | 0.05 | 0.05 | 80 | 1010.1 |
| 20260904232800 | 87 | 0 | 1.7 | 3.5 | 0.00 | 0.05 | 0.05 | 80 | 1010.2 |
| 20260904232700 | 87 | 0 | 1.7 | 3.5 | 0.00 | 0.05 | 0.05 | 81 | 1010.2 |
| 20260904232559 | 87 | 0 | 2.6 | 3.5 | 0.00 | 0.05 | 0.05 | 81 | 1010.2 |
| 20260904232500 | 87 | 0 | 1.7 | 3.5 | 0.00 | 0.05 | 0.05 | 82 | 1010.2 |
| 20260904232400 | 87 | 0 | 1.7 | 3.5 | 0.00 | 0.05 | 0.05 | 81 | 1010.2 |
| 20260904232300 | 87 | 0 | 1.7 | 3.5 | 0.00 | 0.05 | 0.05 | 81 | 1010.3 |
| 20260904232159 | 87 | 358 | 1.7 | 3.5 | 0.00 | 0.05 | 0.05 | 81 | 1010.2 |
| 20260904232059 | 87 | 358 | 2.6 | 3.5 | 0.00 | 0.05 | 0.05 | 80 | 1010.2 |
| 20260904231959 | 87 | 357 | 2.6 | 3.5 | 0.00 | 0.05 | 0.05 | 80 | 1010.2 |
| 20260904231901 | 87 | 357 | 1.7 | 3.5 | 0.00 | 0.05 | 0.05 | 80 | 1010.3 |
| 20260904231800 | 87 | 355 | 1.7 | 3.5 | 0.00 | 0.05 | 0.05 | 81 | 1010.3 |
| 20260904231659 | 87 | 331 | 1.7 | 3.5 | 0.00 | 0.05 | 0.05 | 81 | 1010.3 |
| 20260904231601 | 87 | 330 | 1.7 | 3.5 | 0.00 | 0.05 | 0.05 | 81 | 1010.2 |
| 20260904231459 | 87 | 329 | 1.7 | 3.5 | 0.00 | 0.05 | 0.05 | 80 | 1010.2 |
| 20260904231400 | 87 | 329 | 1.7 | 4.3 | 0.00 | 0.05 | 0.05 | 80 | 1010.2 |
| 20260904231300 | 87 | 329 | 1.7 | 4.3 | 0.00 | 0.05 | 0.05 | 80 | 1010.2 |
| 20260904231202 | 87 | 324 | 1.7 | 4.3 | 0.00 | 0.05 | 0.05 | 80 | 1010.2 |
| 20260904231058 | 86 | 324 | 2.6 | 4.3 | 0.00 | 0.05 | 0.05 | 79 | 1010.2 |
| 20260904230959 | 86 | 324 | 1.7 | 4.3 | 0.00 | 0.05 | 0.05 | 80 | 1010.2 |
| 20260904230900 | 86 | 324 | 1.7 | 4.3 | 0.00 | 0.05 | 0.05 | 80 | 1010.2 |
| 20260904230759 | 86 | 324 | 2.6 | 4.3 | 0.00 | 0.05 | 0.05 | 81 | 1010.1 |
| 20260904230700 | 86 | 324 | 2.6 | 4.3 | 0.00 | 0.05 | 0.05 | 80 | 1010.1 |
| 20260904230601 | 86 | 323 | 3.5 | 4.3 | 0.00 | 0.05 | 0.05 | 80 | 1010.2 |
| 20260904230501 | 86 | 323 | 3.5 | 4.3 | 0.00 | 0.05 | 0.05 | 81 | 1010.1 |
| 20260904230359 | 87 | 330 | 2.6 | 4.3 | 0.00 | 0.05 | 0.05 | 82 | 1010.1 |
| 20260904230259 | 87 | 330 | 2.6 | 4.3 | 0.00 | 0.05 | 0.05 | 82 | 1010.1 |
| 20260904230159 | 87 | 330 | 2.6 | 4.3 | 0.00 | 0.05 | 0.05 | 82 | 1010.2 |
| 20260904230100 | 87 | 334 | 1.7 | 3.5 | 0.00 | 0.05 | 0.05 | 82 | 1010.2 |
| 20260904225958 | 86 | 334 | 1.7 | 3.5 | 0.00 | 0.05 | 0.00 | 82 | 1010.1 |
| 20260904225859 | 86 | 334 | 2.6 | 3.5 | 0.00 | 0.05 | 0.00 | 82 | 1010.2 |
| 20260904225800 | 86 | 334 | 2.6 | 3.5 | 0.00 | 0.05 | 0.00 | 82 | 1010.2 |
| 20260904225659 | 86 | 334 | 2.6 | 3.5 | 0.00 | 0.05 | 0.00 | 84 | 1010.2 |
| 20260904225600 | 86 | 334 | 1.7 | 3.5 | 0.00 | 0.05 | 0.00 | 84 | 1010.1 |
| 20260904225459 | 86 | 334 | 1.7 | 3.5 | 0.00 | 0.05 | 0.00 | 84 | 1010.2 |
| 20260904225359 | 86 | 334 | 1.7 | 3.5 | 0.00 | 0.05 | 0.00 | 84 | 1010.1 |
| 20260904225300 | 86 | 334 | 1.7 | 3.5 | 0.00 | 0.05 | 0.00 | 84 | 1010.1 |
| 20260904225158 | 86 | 334 | 1.7 | 2.6 | 0.00 | 0.05 | 0.00 | 84 | 1010.2 |
| 20260904225058 | 86 | 334 | 1.7 | 2.6 | 0.00 | 0.05 | 0.00 | 84 | 1010.1 |
| 20260904224959 | 86 | 334 | 1.7 | 2.6 | 0.00 | 0.05 | 0.00 | 84 | 1010.1 |
| 20260904224859 | 86 | 334 | 1.7 | 3.5 | 0.00 | 0.05 | 0.00 | 84 | 1010.1 |
| 20260904224759 | 86 | 334 | 1.7 | 3.5 | 0.00 | 0.05 | 0.00 | 83 | 1010.1 |
| 20260904224659 | 86 | 334 | 1.7 | 3.5 | 0.00 | 0.05 | 0.00 | 84 | 1010.1 |
| 20260904224600 | 86 | 334 | 1.7 | 3.5 | 0.00 | 0.05 | 0.00 | 84 | 1010.1 |
| 20260904224500 | 86 | 334 | 1.7 | 3.5 | 0.00 | 0.05 | 0.00 | 84 | 1010.1 |
| 20260904224358 | 86 | 334 | 1.7 | 3.5 | 0.00 | 0.05 | 0.00 | 84 | 1010.1 |
| 20260904224258 | 85 | 334 | 1.7 | 3.5 | 0.00 | 0.05 | 0.00 | 84 | 1010.1 |
| 20260904224158 | 85 | 334 | 1.7 | 3.5 | 0.00 | 0.05 | 0.00 | 84 | 1010.1 |
| 20260904224058 | 85 | 334 | 2.6 | 3.5 | 0.00 | 0.05 | 0.00 | 83 | 1010.2 |
| 20260904223959 | 85 | 334 | 1.7 | 3.5 | 0.01 | 0.05 | 0.00 | 83 | 1010.2 |
| 20260904223900 | 85 | 334 | 1.7 | 4.3 | 0.01 | 0.05 | 0.00 | 85 | 1010.2 |
| 20260904223800 | 85 | 334 | 1.7 | 4.3 | 0.03 | 0.05 | 0.00 | 85 | 1010.2 |
| 20260904223657 | 85 | 334 | 1.7 | 4.3 | 0.04 | 0.05 | 0.00 | 87 | 1010.1 |
| 20260904223559 | 84 | 331 | 1.7 | 4.3 | 0.05 | 0.05 | 0.00 | 86 | 1010.2 |
| 20260904223500 | 84 | 331 | 1.7 | 4.3 | 0.05 | 0.05 | 0.00 | 86 | 1010.2 |
| 20260904223359 | 84 | 331 | 1.7 | 4.3 | 0.05 | 0.05 | 0.00 | 86 | 1010.1 |
| 20260904223232 | 83 | 331 | 2.6 | 4.3 | 0.05 | 0.05 | 0.00 | 86 | 1010.1 |
| 20260904223125 | 83 | 331 | 2.6 | 5.2 | 0.05 | 0.05 | 0.00 | 87 | 1010.2 |
| 20260904223021 | 83 | 330 | 2.6 | 5.2 | 0.05 | 0.05 | 0.00 | 88 | 1010.1 |
| 20260904222918 | 83 | 330 | 1.7 | 5.2 | 0.05 | 0.05 | 0.00 | 88 | 1010.1 |
| 20260904222818 | 83 | 316 | 1.7 | 5.2 | 0.05 | 0.05 | 0.00 | 88 | 1010.2 |
| 20260904222715 | 83 | 316 | 2.6 | 5.2 | 0.05 | 0.05 | 0.00 | 89 | 1010.2 |
| 20260904222612 | 83 | 316 | 3.5 | 5.2 | 0.05 | 0.05 | 0.00 | 89 | 1010.2 |
| 20260904222510 | 82 | 316 | 2.6 | 5.2 | 0.05 | 0.05 | 0.00 | 89 | 1010.3 |
| 20260904222406 | 82 | 314 | 3.5 | 5.2 | 0.05 | 0.05 | 0.00 | 89 | 1010.2 |
| 20260904222306 | 82 | 314 | 4.3 | 5.2 | 0.05 | 0.05 | 0.00 | 89 | 1010.3 |
| 20260904222203 | 82 | 299 | 3.5 | 4.3 | 0.05 | 0.05 | 0.00 | 91 | 1010.3 |
| 20260904222104 | 82 | 334 | 2.6 | 4.3 | 0.05 | 0.05 | 0.00 | 91 | 1010.4 |
| 20260904222003 | 82 | 334 | 2.6 | 4.3 | 0.05 | 0.05 | 0.00 | 91 | 1010.3 |
| 20260904221904 | 82 | 341 | 1.7 | 4.3 | 0.05 | 0.05 | 0.00 | 91 | 1010.3 |
| 20260904221801 | 82 | 341 | 1.7 | 4.3 | 0.05 | 0.05 | 0.00 | 91 | 1010.3 |
| 20260904221703 | 82 | 341 | 1.7 | 4.3 | 0.05 | 0.05 | 0.00 | 91 | 1010.3 |
| 20260904221603 | 82 | 341 | 1.7 | 4.3 | 0.05 | 0.05 | 0.00 | 91 | 1010.3 |
| 20260904221503 | 82 | 341 | 1.7 | 4.3 | 0.05 | 0.05 | 0.00 | 90 | 1010.3 |
| 20260904221402 | 82 | 340 | 1.7 | 4.3 | 0.05 | 0.05 | 0.00 | 92 | 1010.3 |
| 20260904221304 | 82 | 340 | 2.6 | 4.3 | 0.05 | 0.05 | 0.00 | 91 | 1010.4 |
| 20260904221203 | 82 | 340 | 1.7 | 4.3 | 0.05 | 0.05 | 0.00 | 91 | 1010.4 |
| 20260904221102 | 82 | 340 | 1.7 | 4.3 | 0.05 | 0.05 | 0.00 | 91 | 1010.3 |
| 20260904221003 | 81 | 340 | 1.7 | 4.3 | 0.05 | 0.05 | 0.00 | 91 | 1010.4 |
| 20260904220904 | 81 | 338 | 2.6 | 6.1 | 0.05 | 0.05 | 0.00 | 91 | 1010.4 |
| 20260904220803 | 81 | 338 | 2.6 | 6.1 | 0.05 | 0.05 | 0.00 | 91 | 1010.4 |
| 20260904220704 | 81 | 337 | 2.6 | 6.1 | 0.05 | 0.05 | 0.00 | 90 | 1010.5 |
| 20260904220603 | 81 | 337 | 3.5 | 6.1 | 0.05 | 0.05 | 0.00 | 89 | 1010.5 |
| 20260904220502 | 81 | 321 | 3.5 | 6.1 | 0.05 | 0.05 | 0.00 | 90 | 1010.5 |
| 20260904220403 | 81 | 299 | 5.2 | 6.1 | 0.05 | 0.05 | 0.05 | 91 | 1010.6 |
| 20260904220304 | 81 | 299 | 5.2 | 6.1 | 0.05 | 0.05 | 0.05 | 91 | 1010.6 |
| 20260904220201 | 81 | 299 | 5.2 | 6.1 | 0.05 | 0.05 | 0.05 | 91 | 1010.5 |
| 20260904220058 | 81 | 299 | 5.2 | 6.1 | 0.05 | 0.05 | 0.05 | 91 | 1010.6 |
| 20260904215957 | 81 | 299 | 5.2 | 6.1 | 0.00 | 0.00 | 0.05 | 92 | 1010.5 |
| 20260904215858 | 81 | 303 | 4.3 | 5.2 | 0.00 | 0.00 | 0.05 | 92 | 1010.5 |
| 20260904215757 | 81 | 309 | 2.6 | 4.3 | 0.00 | 0.00 | 0.05 | 91 | 1010.6 |
| 20260904215658 | 81 | 323 | 1.7 | 3.5 | 0.00 | 0.00 | 0.05 | 91 | 1010.5 |
| 20260904215600 | 81 | 323 | 1.7 | 3.5 | 0.00 | 0.00 | 0.05 | 91 | 1010.5 |
| 20260904215458 | 81 | 323 | 0.0 | 3.5 | 0.00 | 0.00 | 0.05 | 91 | 1010.6 |
| 20260904215358 | 81 | 323 | 0.0 | 3.5 | 0.00 | 0.00 | 0.05 | 91 | 1010.6 |
| 20260904215259 | 81 | 323 | 0.0 | 3.5 | 0.00 | 0.00 | 0.05 | 92 | 1010.6 |
| 20260904215159 | 81 | 323 | 0.9 | 3.5 | 0.00 | 0.00 | 0.05 | 92 | 1010.6 |
| 20260904215057 | 81 | 323 | 1.7 | 3.5 | 0.00 | 0.00 | 0.05 | 91 | 1010.6 |
| 20260904214957 | 81 | 323 | 1.7 | 3.5 | 0.00 | 0.00 | 0.05 | 90 | 1010.5 |
| 20260904214857 | 81 | 320 | 1.7 | 3.5 | 0.00 | 0.00 | 0.05 | 90 | 1010.6 |
| 20260904214758 | 81 | 317 | 1.7 | 3.5 | 0.00 | 0.00 | 0.05 | 90 | 1010.6 |
| 20260904214659 | 81 | 317 | 0.9 | 3.5 | 0.00 | 0.00 | 0.05 | 89 | 1010.7 |
| 20260904214558 | 81 | 317 | 0.9 | 3.5 | 0.00 | 0.00 | 0.05 | 90 | 1010.8 |
| 20260904214457 | 81 | 317 | 1.7 | 3.5 | 0.00 | 0.00 | 0.05 | 90 | 1010.7 |
| 20260904214358 | 81 | 317 | 1.7 | 3.5 | 0.00 | 0.00 | 0.05 | 89 | 1010.7 |
| 20260904214256 | 81 | 317 | 1.7 | 3.5 | 0.00 | 0.00 | 0.05 | 89 | 1010.8 |
| 20260904214159 | 81 | 317 | 2.6 | 3.5 | 0.00 | 0.00 | 0.05 | 88 | 1010.8 |
| 20260904214057 | 81 | 317 | 3.5 | 3.5 | 0.00 | 0.00 | 0.04 | 88 | 1010.7 |
| 20260904213957 | 81 | 317 | 2.6 | 3.5 | 0.00 | 0.00 | 0.04 | 88 | 1010.7 |
| 20260904213859 | 81 | 317 | 1.7 | 2.6 | 0.00 | 0.00 | 0.02 | 87 | 1010.7 |
| 20260904213756 | 81 | 317 | 1.7 | 2.6 | 0.00 | 0.00 | 0.01 | 86 | 1010.7 |
| 20260904213657 | 82 | 317 | 1.7 | 2.6 | 0.00 | 0.00 | 0.00 | 86 | 1010.6 |
| 20260904213558 | 82 | 317 | 1.7 | 2.6 | 0.00 | 0.00 | 0.00 | 85 | 1010.6 |
| 20260904213457 | 82 | 317 | 1.7 | 2.6 | 0.00 | 0.00 | 0.00 | 85 | 1010.6 |
| 20260904213357 | 82 | 316 | 1.7 | 0.0 | 0.00 | 0.00 | 0.00 | 85 | 1010.6 |
| 20260904213257 | 0 | 0.0 | 0.0 | 0.00 | 0.00 | 0.00 | 1010.6 | ||
| 20260904212732 | 86 | 104 | 7.8 | 11.3 | 0.03 | 0.00 | 0.03 | 78 | 1011.0 |
| 20260904212632 | 86 | 104 | 7.8 | 11.3 | 0.03 | 0.00 | 0.03 | 78 | 1011.1 |
| 20260904212532 | 86 | 104 | 7.8 | 11.3 | 0.03 | 0.00 | 0.03 | 78 | 1011.1 |
| 20260904212432 | 86 | 104 | 7.8 | 11.3 | 0.03 | 0.00 | 0.03 | 78 | 1011.0 |
| 20260904212332 | 86 | 104 | 7.8 | 11.3 | 0.03 | 0.00 | 0.03 | 78 | 1010.9 |
| 20260904212232 | 87 | 89 | 8.7 | 11.3 | 0.01 | 0.00 | 0.01 | 78 | 1010.9 |
| 20260904212132 | 87 | 96 | 8.7 | 11.3 | 0.01 | 0.00 | 0.00 | 77 | 1010.7 |
| 20260904212031 | 87 | 83 | 7.8 | 13.0 | 0.00 | 0.00 | 0.00 | 77 | 1010.7 |
| 20260904211932 | 87 | 93 | 8.7 | 13.0 | 0.00 | 0.00 | 0.00 | 76 | 1010.6 |
| 20260904211831 | 88 | 102 | 8.7 | 13.0 | 0.00 | 0.00 | 0.00 | 76 | 1010.6 |
| 20260904211732 | 88 | 96 | 7.0 | 13.0 | 0.00 | 0.00 | 0.00 | 76 | 1010.6 |
| 20260904211631 | 88 | 63 | 7.0 | 13.0 | 0.00 | 0.00 | 0.00 | 75 | 1010.5 |
| 20260904211531 | 88 | 114 | 7.8 | 13.0 | 0.00 | 0.00 | 0.00 | 74 | 1010.6 |
| 20260904211432 | 89 | 117 | 7.0 | 13.0 | 0.00 | 0.00 | 0.00 | 74 | 1010.6 |
| 20260904211332 | 89 | 76 | 7.8 | 13.0 | 0.00 | 0.00 | 0.00 | 73 | 1010.6 |
| 20260904211231 | 89 | 99 | 9.6 | 13.0 | 0.00 | 0.00 | 0.00 | 73 | 1010.7 |
| 20260904211131 | 89 | 73 | 9.6 | 13.0 | 0.00 | 0.00 | 0.00 | 72 | 1010.7 |
| 20260904211031 | 89 | 114 | 7.8 | 11.3 | 0.00 | 0.00 | 0.00 | 72 | 1010.6 |
| 20260904210931 | 89 | 102 | 6.1 | 9.6 | 0.00 | 0.00 | 0.00 | 72 | 1010.7 |
| 20260904210831 | 89 | 121 | 4.3 | 9.6 | 0.00 | 0.00 | 0.00 | 72 | 1010.7 |
| 20260904210731 | 89 | 52 | 2.6 | 4.3 | 0.00 | 0.00 | 0.00 | 72 | 1010.6 |
| 20260904210631 | 89 | 0 | 1.7 | 3.5 | 0.00 | 0.00 | 0.00 | 72 | 1010.5 |
| 20260904210531 | 90 | 0 | 1.7 | 3.5 | 0.00 | 0.00 | 0.00 | 73 | 1010.5 |
| 20260904210433 | 90 | 0 | 1.7 | 4.3 | 0.00 | 0.00 | 0.00 | 72 | 1010.5 |
| 20260904210333 | 90 | 0 | 1.7 | 4.3 | 0.00 | 0.00 | 0.00 | 72 | 1010.4 |
| 20260904210231 | 90 | 0 | 2.6 | 4.3 | 0.00 | 0.00 | 0.00 | 72 | 1010.4 |
| 20260904210131 | 90 | 0 | 2.6 | 4.3 | 0.00 | 0.00 | 0.00 | 72 | 1010.5 |
| 20260904210033 | 90 | 0 | 2.6 | 4.3 | 0.00 | 0.00 | 0.00 | 72 | 1010.5 |
| 20260904205930 | 90 | 0 | 2.6 | 4.3 | 0.00 | 0.00 | 0.00 | 72 | 1010.6 |
| 20260904205830 | 90 | 0 | 2.6 | 4.3 | 0.00 | 0.00 | 0.00 | 72 | 1010.6 |
| 20260904205732 | 90 | 0 | 2.6 | 4.3 | 0.00 | 0.00 | 0.00 | 72 | 1010.6 |
| 20260904205633 | 90 | 8 | 2.6 | 4.3 | 0.00 | 0.00 | 0.00 | 72 | 1010.7 |
| 20260904205531 | 90 | 8 | 1.7 | 4.3 | 0.00 | 0.00 | 0.00 | 72 | 1010.8 |
| 20260904205431 | 90 | 0 | 1.7 | 3.5 | 0.00 | 0.00 | 0.00 | 71 | 1010.6 |
| 20260904205333 | 90 | 0 | 1.7 | 3.5 | 0.00 | 0.00 | 0.00 | 71 | 1010.7 |
| 20260904205231 | 90 | 0 | 1.7 | 3.5 | 0.00 | 0.00 | 0.00 | 70 | 1010.7 |
| 20260904205132 | 90 | 0 | 2.6 | 3.5 | 0.00 | 0.00 | 0.00 | 71 | 1010.7 |
| 20260904205032 | 90 | 0 | 2.6 | 3.5 | 0.00 | 0.00 | 0.00 | 71 | 1010.7 |
| 20260904204932 | 90 | 0 | 2.6 | 3.5 | 0.00 | 0.00 | 0.00 | 71 | 1010.7 |
| 20260904204831 | 90 | 0 | 2.6 | 3.5 | 0.00 | 0.00 | 0.00 | 71 | 1010.8 |
| 20260904204731 | 90 | 316 | 2.6 | 3.5 | 0.00 | 0.00 | 0.00 | 70 | 1010.8 |
| 20260904204632 | 90 | 316 | 1.7 | 3.5 | 0.00 | 0.00 | 0.00 | 70 | 1010.7 |
| 20260904204532 | 90 | 316 | 1.7 | 3.5 | 0.00 | 0.00 | 0.00 | 70 | 1010.7 |
| 20260904204431 | 90 | 316 | 2.6 | 3.5 | 0.00 | 0.00 | 0.00 | 71 | 1010.8 |
| 20260904204330 | 90 | 314 | 2.6 | 3.5 | 0.00 | 0.00 | 0.00 | 71 | 1010.9 |
| 20260904204227 | 90 | 314 | 1.7 | 3.5 | 0.00 | 0.00 | 0.00 | 71 | 1010.8 |
| 20260904204125 | 90 | 314 | 0.9 | 3.5 | 0.00 | 0.00 | 0.00 | 71 | 1010.9 |
| 20260904204025 | 90 | 314 | 0.9 | 3.5 | 0.00 | 0.00 | 0.00 | 71 | 1010.9 |
| 20260904203924 | 90 | 314 | 2.6 | 3.5 | 0.00 | 0.00 | 0.00 | 71 | 1010.8 |
| 20260904203824 | 91 | 314 | 2.6 | 3.5 | 0.00 | 0.00 | 0.00 | 71 | 1010.9 |
| 20260904203723 | 91 | 314 | 2.6 | 3.5 | 0.00 | 0.00 | 0.00 | 71 | 1010.9 |
| 20260904203622 | 91 | 345 | 1.7 | 3.5 | 0.00 | 0.00 | 0.00 | 71 | 1011.0 |
| 20260904203521 | 91 | 0 | 1.7 | 2.6 | 0.00 | 0.00 | 0.00 | 70 | 1010.9 |
| 20260904203419 | 91 | 1 | 1.7 | 2.6 | 0.00 | 0.00 | 0.00 | 69 | 1010.9 |
| 20260904203317 | 91 | 0 | 1.7 | 2.6 | 0.00 | 0.00 | 0.00 | 69 | 1010.9 |
| 20260904203216 | 91 | 0 | 1.7 | 2.6 | 0.00 | 0.00 | 0.00 | 69 | 1010.9 |
| 20260904203110 | 92 | 0 | 0.9 | 3.5 | 0.00 | 0.00 | 0.00 | 70 | 1010.9 |
| 20260904203010 | 91 | 0 | 0.9 | 3.5 | 0.00 | 0.00 | 0.00 | 69 | 1011.0 |
| 20260904202909 | 91 | 0 | 0.9 | 4.3 | 0.00 | 0.00 | 0.00 | 69 | 1011.0 |
| 20260904202807 | 91 | 0 | 0.9 | 4.3 | 0.00 | 0.00 | 0.00 | 68 | 1011.0 |
| 20260904202705 | 91 | 49 | 1.7 | 4.3 | 0.00 | 0.00 | 0.00 | 68 | 1011.0 |
| 20260904202602 | 91 | 49 | 0.9 | 4.3 | 0.00 | 0.00 | 0.00 | 69 | 1011.1 |
| 20260904202503 | 91 | 127 | 0.0 | 4.3 | 0.00 | 0.00 | 0.00 | 68 | 1011.1 |
| 20260904202403 | 91 | 141 | 0.9 | 5.2 | 0.00 | 0.00 | 0.00 | 67 | 1011.1 |
| 20260904202305 | 91 | 141 | 1.7 | 5.2 | 0.00 | 0.00 | 0.00 | 67 | 1011.2 |
| 20260904202202 | 92 | 141 | 2.6 | 5.2 | 0.00 | 0.00 | 0.00 | 67 | 1011.1 |
| 20260904202102 | 92 | 148 | 3.5 | 5.2 | 0.00 | 0.00 | 0.00 | 67 | 1011.1 |
| 20260904202004 | 92 | 118 | 3.5 | 7.8 | 0.00 | 0.00 | 0.00 | 67 | 1011.2 |
| 20260904201902 | 92 | 182 | 2.6 | 7.8 | 0.00 | 0.00 | 0.00 | 67 | 1011.1 |
| 20260904201802 | 92 | 200 | 1.7 | 7.8 | 0.00 | 0.00 | 0.00 | 67 | 1011.1 |
| 20260904201703 | 92 | 65 | 1.7 | 7.8 | 0.00 | 0.00 | 0.00 | 67 | 1011.2 |
| 20260904201603 | 92 | 61 | 2.6 | 7.8 | 0.00 | 0.00 | 0.00 | 66 | 1011.2 |
| 20260904201503 | 92 | 61 | 3.5 | 7.8 | 0.00 | 0.00 | 0.00 | 65 | 1011.2 |
| 20260904201402 | 93 | 86 | 2.6 | 7.8 | 0.00 | 0.00 | 0.00 | 65 | 1011.2 |
| 20260904201302 | 93 | 83 | 4.3 | 7.8 | 0.00 | 0.00 | 0.00 | 64 | 1011.2 |
| 20260904201202 | 94 | 96 | 5.2 | 7.8 | 0.00 | 0.00 | 0.00 | 64 | 1011.2 |
| 20260904201103 | 94 | 94 | 5.2 | 7.8 | 0.00 | 0.00 | 0.00 | 64 | 1011.2 |
| 20260904201004 | 94 | 80 | 2.6 | 7.8 | 0.00 | 0.00 | 0.00 | 64 | 1011.2 |
| 20260904200902 | 94 | 51 | 1.7 | 5.2 | 0.00 | 0.00 | 0.00 | 64 | 1011.2 |
| 20260904200803 | 94 | 345 | 1.7 | 5.2 | 0.00 | 0.00 | 0.00 | 65 | 1011.1 |
| 20260904200704 | 94 | 344 | 2.6 | 5.2 | 0.00 | 0.00 | 0.00 | 65 | 1011.2 |
| 20260904200602 | 94 | 343 | 2.6 | 5.2 | 0.00 | 0.00 | 0.00 | 65 | 1011.2 |
| 20260904200505 | 94 | 320 | 2.6 | 4.3 | 0.00 | 0.00 | 0.00 | 65 | 1011.1 |
| 20260904200403 | 94 | 330 | 3.5 | 4.3 | 0.00 | 0.00 | 0.00 | 65 | 1011.2 |
| 20260904200303 | 94 | 331 | 3.5 | 4.3 | 0.00 | 0.00 | 0.00 | 66 | 1011.1 |
| 20260904200202 | 93 | 317 | 3.5 | 4.3 | 0.00 | 0.00 | 0.00 | 66 | 1011.2 |
| 20260904200004 | 93 | 278 | 0.9 | 5.2 | 0.00 | 0.00 | 0.00 | 66 | 1011.1 |
| 20260904195902 | 93 | 4 | 0.0 | 5.2 | 0.00 | 0.00 | 0.00 | 66 | 1011.1 |
| 20260904195802 | 93 | 4 | 0.0 | 5.2 | 0.00 | 0.00 | 0.00 | 66 | 1011.2 |
| 20260904195702 | 93 | 27 | 0.9 | 5.2 | 0.00 | 0.00 | 0.00 | 66 | 1011.2 |
| 20260904195603 | 92 | 28 | 1.7 | 5.2 | 0.00 | 0.00 | 0.00 | 67 | 1011.2 |
| 20260904195502 | 92 | 14 | 1.7 | 5.2 | 0.00 | 0.00 | 0.00 | 68 | 1011.2 |
| 20260904195402 | 92 | 79 | 2.6 | 5.2 | 0.00 | 0.00 | 0.00 | 67 | 1011.3 |
| 20260904195306 | 92 | 80 | 3.5 | 5.2 | 0.00 | 0.00 | 0.00 | 67 | 1011.2 |
| 20260904195202 | 93 | 102 | 3.5 | 5.2 | 0.00 | 0.00 | 0.00 | 67 | 1011.2 |
| 20260904195103 | 93 | 182 | 3.5 | 5.2 | 0.00 | 0.00 | 0.00 | 67 | 1011.2 |
| 20260904195003 | 93 | 131 | 3.5 | 5.2 | 0.00 | 0.00 | 0.00 | 67 | 1011.2 |
| 20260904194902 | 93 | 124 | 2.6 | 5.2 | 0.00 | 0.00 | 0.00 | 68 | 1011.3 |
| 20260904194802 | 93 | 97 | 2.6 | 4.3 | 0.00 | 0.00 | 0.00 | 68 | 1011.2 |
| 20260904194702 | 93 | 110 | 1.7 | 4.3 | 0.00 | 0.00 | 0.00 | 69 | 1011.3 |
| 20260904194603 | 93 | 13 | 0.9 | 4.3 | 0.00 | 0.00 | 0.00 | 69 | 1011.3 |
| 20260904194502 | 93 | 302 | 0.9 | 4.3 | 0.00 | 0.00 | 0.00 | 69 | 1011.4 |
| 20260904194402 | 92 | 302 | 0.0 | 4.3 | 0.00 | 0.00 | 0.00 | 69 | 1011.3 |
| 20260904194303 | 92 | 307 | 0.0 | 4.3 | 0.00 | 0.00 | 0.00 | 69 | 1011.4 |
| 20260904194202 | 92 | 307 | 0.9 | 4.3 | 0.00 | 0.00 | 0.00 | 70 | 1011.5 |
| 20260904194103 | 92 | 306 | 1.7 | 4.3 | 0.00 | 0.00 | 0.00 | 69 | 1011.5 |
| 20260904194002 | 92 | 306 | 3.5 | 4.3 | 0.00 | 0.00 | 0.00 | 71 | 1011.5 |
| 20260904193903 | 92 | 309 | 2.6 | 3.5 | 0.00 | 0.00 | 0.00 | 70 | 1011.6 |
| 20260904193802 | 92 | 312 | 2.6 | 4.3 | 0.00 | 0.00 | 0.00 | 72 | 1011.5 |
| 20260904193702 | 92 | 340 | 1.7 | 5.2 | 0.00 | 0.00 | 0.00 | 72 | 1011.6 |
| 20260904193603 | 91 | 345 | 0.9 | 5.2 | 0.00 | 0.00 | 0.00 | 72 | 1011.5 |
| 20260904193503 | 91 | 345 | 1.7 | 5.2 | 0.00 | 0.00 | 0.00 | 73 | 1011.5 |
| 20260904193404 | 91 | 345 | 1.7 | 5.2 | 0.00 | 0.00 | 0.00 | 73 | 1011.5 |
| 20260904193302 | 91 | 300 | 1.7 | 5.2 | 0.00 | 0.00 | 0.00 | 74 | 1011.5 |
| 20260904193203 | 90 | 312 | 1.7 | 5.2 | 0.00 | 0.00 | 0.00 | 73 | 1011.5 |
| 20260904193102 | 90 | 312 | 2.6 | 6.1 | 0.00 | 0.00 | 0.00 | 74 | 1011.5 |
| 20260904193003 | 90 | 312 | 2.6 | 6.1 | 0.00 | 0.00 | 0.00 | 74 | 1011.4 |
| 20260904192903 | 90 | 279 | 3.5 | 6.1 | 0.00 | 0.00 | 0.00 | 75 | 1011.5 |
| 20260904192802 | 90 | 248 | 3.5 | 6.1 | 0.00 | 0.00 | 0.00 | 75 | 1011.6 |
| 20260904192702 | 89 | 264 | 3.5 | 6.1 | 0.00 | 0.00 | 0.00 | 76 | 1011.6 |
| 20260904192603 | 89 | 264 | 3.5 | 6.1 | 0.00 | 0.00 | 0.00 | 76 | 1011.7 |
| 20260904192502 | 89 | 264 | 3.5 | 6.1 | 0.00 | 0.00 | 0.00 | 76 | 1011.7 |
| 20260904192402 | 89 | 264 | 3.5 | 6.1 | 0.00 | 0.00 | 0.00 | 76 | 1011.6 |
| 20260904192306 | 89 | 264 | 3.5 | 6.1 | 0.00 | 0.00 | 0.00 | 76 | 1011.7 |
| 20260904192203 | 89 | 258 | 3.5 | 6.1 | 0.00 | 0.00 | 0.00 | 77 | 1011.7 |
| 20260904192103 | 89 | 219 | 3.5 | 6.1 | 0.00 | 0.00 | 0.00 | 77 | 1011.7 |
| 20260904192003 | 89 | 241 | 4.3 | 6.1 | 0.00 | 0.00 | 0.00 | 76 | 1011.7 |
| 20260904191903 | 89 | 278 | 3.5 | 6.1 | 0.00 | 0.00 | 0.00 | 76 | 1011.7 |
| 20260904191804 | 89 | 268 | 3.5 | 6.1 | 0.00 | 0.00 | 0.00 | 76 | 1011.8 |
| 20260904191704 | 89 | 285 | 3.5 | 6.1 | 0.00 | 0.00 | 0.00 | 77 | 1011.8 |
| 20260904191602 | 89 | 266 | 2.6 | 8.7 | 0.00 | 0.00 | 0.00 | 76 | 1011.8 |
| 20260904191504 | 89 | 295 | 2.6 | 8.7 | 0.00 | 0.00 | 0.00 | 76 | 1011.8 |
| 20260904191402 | 88 | 274 | 2.6 | 8.7 | 0.00 | 0.00 | 0.00 | 76 | 1011.8 |
| 20260904191302 | 88 | 295 | 3.5 | 8.7 | 0.00 | 0.00 | 0.00 | 77 | 1011.8 |
| 20260904191203 | 88 | 259 | 4.3 | 8.7 | 0.00 | 0.00 | 0.00 | 78 | 1011.8 |
| 20260904191103 | 87 | 309 | 4.3 | 8.7 | 0.00 | 0.00 | 0.00 | 79 | 1012.0 |
| 20260904191003 | 87 | 329 | 4.3 | 8.7 | 0.00 | 0.00 | 0.00 | 78 | 1011.9 |
| 20260904190902 | 87 | 313 | 4.3 | 8.7 | 0.00 | 0.00 | 0.00 | 78 | 1012.0 |
| 20260904190803 | 87 | 317 | 5.2 | 8.7 | 0.00 | 0.00 | 0.00 | 79 | 1012.0 |
| 20260904190703 | 86 | 300 | 5.2 | 8.7 | 0.00 | 0.00 | 0.00 | 79 | 1011.9 |
| 20260904190603 | 86 | 316 | 4.3 | 7.8 | 0.00 | 0.00 | 0.00 | 79 | 1012.0 |
| 20260904190504 | 86 | 283 | 4.3 | 6.1 | 0.00 | 0.00 | 0.00 | 80 | 1012.0 |
| 20260904190402 | 86 | 288 | 4.3 | 6.1 | 0.00 | 0.00 | 0.00 | 81 | 1012.1 |
| 20260904190301 | 86 | 288 | 4.3 | 6.1 | 0.00 | 0.00 | 0.00 | 80 | 1012.1 |
| 20260904190200 | 85 | 293 | 4.3 | 5.2 | 0.00 | 0.00 | 0.00 | 81 | 1012.1 |
| 20260904190101 | 85 | 298 | 3.5 | 7.8 | 0.00 | 0.00 | 0.00 | 82 | 1012.2 |
| 20260904185958 | 85 | 279 | 2.6 | 7.8 | 0.00 | 0.00 | 0.00 | 82 | 1012.2 |
| 20260904185859 | 85 | 298 | 3.5 | 7.8 | 0.00 | 0.00 | 0.00 | 82 | 1012.3 |
| 20260904185759 | 85 | 298 | 4.3 | 7.8 | 0.00 | 0.00 | 0.00 | 82 | 1012.3 |
| 20260904185659 | 85 | 300 | 4.3 | 7.8 | 0.00 | 0.00 | 0.00 | 83 | 1012.3 |
| 20260904185559 | 85 | 300 | 4.3 | 7.8 | 0.00 | 0.00 | 0.00 | 83 | 1012.3 |
| 20260904185459 | 85 | 0 | 3.5 | 7.8 | 0.00 | 0.00 | 0.00 | 83 | 1012.3 |
| 20260904185359 | 85 | 0 | 3.5 | 7.8 | 0.00 | 0.00 | 0.00 | 84 | 1012.2 |
| 20260904185258 | 85 | 0 | 3.5 | 7.8 | 0.00 | 0.00 | 0.00 | 83 | 1012.2 |
| 20260904185200 | 84 | 0 | 4.3 | 7.8 | 0.00 | 0.00 | 0.00 | 85 | 1012.3 |
| 20260904185058 | 84 | 0 | 3.5 | 7.8 | 0.00 | 0.00 | 0.00 | 85 | 1012.3 |
| 20260904184958 | 84 | 0 | 4.3 | 7.8 | 0.00 | 0.00 | 0.00 | 83 | 1012.4 |
| 20260904184857 | 84 | 155 | 5.2 | 7.8 | 0.00 | 0.00 | 0.00 | 81 | 1012.4 |
| 20260904184759 | 84 | 295 | 5.2 | 7.8 | 0.00 | 0.00 | 0.00 | 80 | 1012.5 |
| 20260904184657 | 84 | 302 | 5.2 | 7.8 | 0.00 | 0.00 | 0.00 | 80 | 1012.5 |
| 20260904184557 | 85 | 299 | 4.3 | 7.8 | 0.00 | 0.00 | 0.00 | 80 | 1012.5 |
| 20260904184458 | 85 | 281 | 4.3 | 7.8 | 0.00 | 0.00 | 0.00 | 79 | 1012.5 |
| 20260904184357 | 85 | 298 | 4.3 | 7.8 | 0.00 | 0.00 | 0.00 | 79 | 1012.5 |
| 20260904184257 | 85 | 289 | 5.2 | 7.8 | 0.00 | 0.00 | 0.00 | 78 | 1012.6 |
| 20260904184157 | 85 | 298 | 5.2 | 7.8 | 0.00 | 0.00 | 0.00 | 78 | 1012.6 |
| 20260904184059 | 85 | 295 | 4.3 | 7.8 | 0.00 | 0.00 | 0.00 | 78 | 1012.5 |
| 20260904183958 | 85 | 307 | 5.2 | 7.8 | 0.00 | 0.00 | 0.00 | 78 | 1012.5 |
| 20260904183857 | 85 | 300 | 5.2 | 7.8 | 0.00 | 0.00 | 0.00 | 77 | 1012.6 |
| 20260904183759 | 85 | 292 | 5.2 | 7.8 | 0.00 | 0.00 | 0.00 | 77 | 1012.5 |
| 20260904183658 | 85 | 293 | 4.3 | 7.8 | 0.00 | 0.00 | 0.00 | 76 | 1012.6 |
| 20260904183558 | 85 | 305 | 3.5 | 6.1 | 0.00 | 0.00 | 0.00 | 77 | 1012.5 |
| 20260904183459 | 85 | 302 | 3.5 | 7.8 | 0.00 | 0.00 | 0.00 | 76 | 1012.6 |
| 20260904183357 | 85 | 310 | 3.5 | 7.8 | 0.00 | 0.00 | 0.00 | 76 | 1012.6 |
| 20260904183257 | 85 | 312 | 3.5 | 7.8 | 0.00 | 0.00 | 0.00 | 76 | 1012.6 |
| 20260904183157 | 85 | 293 | 3.5 | 7.8 | 0.00 | 0.00 | 0.00 | 76 | 1012.6 |
| 20260904183059 | 85 | 293 | 4.3 | 8.7 | 0.00 | 0.00 | 0.00 | 76 | 1012.5 |
| 20260904182957 | 85 | 317 | 3.5 | 8.7 | 0.00 | 0.00 | 0.00 | 76 | 1012.6 |
| 20260904182859 | 85 | 326 | 4.3 | 8.7 | 0.00 | 0.00 | 0.00 | 76 | 1012.7 |
| 20260904182759 | 85 | 313 | 4.3 | 9.6 | 0.00 | 0.00 | 0.00 | 76 | 1012.7 |
| 20260904182658 | 85 | 313 | 4.3 | 9.6 | 0.00 | 0.00 | 0.00 | 76 | 1012.7 |
| 20260904182557 | 85 | 286 | 4.3 | 9.6 | 0.00 | 0.00 | 0.00 | 76 | 1012.7 |
| 20260904182457 | 85 | 262 | 4.3 | 9.6 | 0.00 | 0.00 | 0.00 | 76 | 1012.8 |
| 20260904182359 | 86 | 314 | 4.3 | 9.6 | 0.00 | 0.00 | 0.00 | 76 | 1012.8 |
| 20260904182256 | 86 | 286 | 5.2 | 9.6 | 0.00 | 0.00 | 0.00 | 75 | 1012.9 |
| 20260904182157 | 86 | 309 | 6.1 | 9.6 | 0.00 | 0.00 | 0.00 | 75 | 1012.9 |
| 20260904182058 | 86 | 289 | 5.2 | 9.6 | 0.00 | 0.00 | 0.00 | 75 | 1012.9 |
| 20260904181957 | 86 | 309 | 6.1 | 9.6 | 0.00 | 0.00 | 0.00 | 74 | 1013.0 |
| 20260904181857 | 87 | 324 | 6.1 | 13.0 | 0.00 | 0.00 | 0.00 | 74 | 1013.0 |
| 20260904181757 | 87 | 275 | 5.2 | 13.0 | 0.00 | 0.00 | 0.00 | 74 | 1013.1 |
| 20260904181658 | 87 | 292 | 4.3 | 13.0 | 0.00 | 0.00 | 0.00 | 75 | 1013.1 |
| 20260904181600 | 87 | 259 | 4.3 | 13.0 | 0.00 | 0.00 | 0.00 | 75 | 1013.1 |
| 20260904181456 | 87 | 276 | 4.3 | 13.0 | 0.00 | 0.00 | 0.00 | 74 | 1013.1 |
| 20260904181358 | 87 | 268 | 5.2 | 13.0 | 0.00 | 0.00 | 0.00 | 73 | 1013.1 |
| 20260904181257 | 87 | 243 | 5.2 | 13.0 | 0.00 | 0.00 | 0.00 | 73 | 1013.1 |
| 20260904181158 | 88 | 285 | 7.0 | 13.0 | 0.00 | 0.00 | 0.00 | 71 | 1013.2 |
| 20260904181058 | 89 | 219 | 8.7 | 13.0 | 0.00 | 0.00 | 0.00 | 68 | 1013.1 |
| 20260904180958 | 90 | 241 | 8.7 | 13.0 | 0.00 | 0.00 | 0.00 | 68 | 1013.1 |
| 20260904180857 | 92 | 243 | 5.2 | 11.3 | 0.00 | 0.00 | 0.00 | 67 | 1013.1 |
| 20260904180756 | 92 | 247 | 2.6 | 5.2 | 0.00 | 0.00 | 0.00 | 68 | 1013.1 |
| 20260904180658 | 93 | 3 | 1.7 | 5.2 | 0.00 | 0.00 | 0.00 | 68 | 1013.1 |
| 20260904180558 | 92 | 18 | 2.6 | 5.2 | 0.00 | 0.00 | 0.00 | 68 | 1013.1 |
| 20260904180456 | 92 | 18 | 3.5 | 5.2 | 0.00 | 0.00 | 0.00 | 67 | 1013.0 |
| 20260904180357 | 93 | 89 | 3.5 | 5.2 | 0.00 | 0.00 | 0.00 | 67 | 1013.0 |
| 20260904180257 | 93 | 73 | 1.7 | 5.2 | 0.00 | 0.00 | 0.00 | 68 | 1013.0 |
| 20260904180156 | 92 | 71 | 0.9 | 5.2 | 0.00 | 0.00 | 0.00 | 68 | 1012.9 |
| 20260904180056 | 92 | 87 | 1.7 | 6.1 | 0.00 | 0.00 | 0.00 | 67 | 1013.0 |
| 20260904175958 | 92 | 87 | 3.5 | 7.8 | 0.00 | 0.00 | 0.00 | 68 | 1013.0 |
| 20260904175856 | 92 | 145 | 3.5 | 7.8 | 0.00 | 0.00 | 0.00 | 68 | 1013.0 |
| 20260904175757 | 92 | 85 | 2.6 | 8.7 | 0.00 | 0.00 | 0.00 | 69 | 1013.1 |
| 20260904175657 | 91 | 134 | 0.9 | 8.7 | 0.00 | 0.00 | 0.00 | 71 | 1013.0 |
| 20260904175557 | 91 | 89 | 0.0 | 8.7 | 0.00 | 0.00 | 0.00 | 71 | 1013.0 |
| 20260904175457 | 91 | 89 | 1.7 | 8.7 | 0.00 | 0.00 | 0.00 | 72 | 1013.0 |
| 20260904175357 | 91 | 87 | 4.3 | 8.7 | 0.00 | 0.00 | 0.00 | 71 | 1013.0 |
| 20260904175258 | 91 | 124 | 5.2 | 8.7 | 0.00 | 0.00 | 0.00 | 72 | 1013.0 |
| 20260904175157 | 92 | 152 | 5.2 | 8.7 | 0.00 | 0.00 | 0.00 | 72 | 1013.0 |
| 20260904175056 | 92 | 75 | 5.2 | 8.7 | 0.00 | 0.00 | 0.00 | 72 | 1012.9 |
| 20260904174957 | 92 | 73 | 6.1 | 8.7 | 0.00 | 0.00 | 0.00 | 72 | 1012.9 |
| 20260904174852 | 92 | 56 | 6.1 | 8.7 | 0.00 | 0.00 | 0.00 | 72 | 1012.8 |
| 20260904174749 | 92 | 63 | 5.2 | 8.7 | 0.00 | 0.00 | 0.00 | 73 | 1012.8 |
| 20260904174648 | 91 | 47 | 4.3 | 6.1 | 0.00 | 0.00 | 0.00 | 74 | 1012.8 |
| 20260904174548 | 91 | 85 | 4.3 | 6.1 | 0.00 | 0.00 | 0.00 | 74 | 1012.9 |
| 20260904174444 | 91 | 109 | 4.3 | 6.1 | 0.00 | 0.00 | 0.00 | 74 | 1012.8 |
| 20260904174345 | 90 | 71 | 4.3 | 7.8 | 0.00 | 0.00 | 0.00 | 74 | 1012.8 |
| 20260904174243 | 90 | 92 | 3.5 | 7.8 | 0.00 | 0.00 | 0.00 | 74 | 1012.8 |
| 20260904174139 | 90 | 100 | 4.3 | 7.8 | 0.00 | 0.00 | 0.00 | 75 | 1012.9 |
| 20260904174035 | 90 | 100 | 4.3 | 10.4 | 0.00 | 0.00 | 0.00 | 75 | 1012.8 |
| 20260904173934 | 90 | 66 | 3.5 | 10.4 | 0.00 | 0.00 | 0.00 | 76 | 1012.8 |
| 20260904173833 | 90 | 62 | 3.5 | 10.4 | 0.00 | 0.00 | 0.00 | 77 | 1012.8 |
| 20260904173732 | 89 | 14 | 3.5 | 10.4 | 0.00 | 0.00 | 0.00 | 77 | 1012.8 |
| 20260904173631 | 89 | 49 | 4.3 | 10.4 | 0.00 | 0.00 | 0.00 | 77 | 1012.8 |
| 20260904173533 | 89 | 99 | 5.2 | 10.4 | 0.00 | 0.00 | 0.00 | 77 | 1012.9 |
| 20260904173431 | 89 | 94 | 5.2 | 10.4 | 0.00 | 0.00 | 0.00 | 78 | 1012.9 |
| 20260904173331 | 89 | 66 | 5.2 | 10.4 | 0.00 | 0.00 | 0.00 | 78 | 1012.9 |
| 20260904173233 | 88 | 82 | 6.1 | 10.4 | 0.00 | 0.00 | 0.00 | 78 | 1013.0 |
| 20260904173131 | 88 | 97 | 7.0 | 10.4 | 0.00 | 0.00 | 0.00 | 79 | 1012.9 |
| 20260904173031 | 88 | 66 | 6.1 | 8.7 | 0.00 | 0.00 | 0.00 | 80 | 1012.9 |
| 20260904172930 | 88 | 86 | 5.2 | 8.7 | 0.00 | 0.00 | 0.00 | 80 | 1012.9 |
| 20260904172833 | 88 | 96 | 5.2 | 8.7 | 0.00 | 0.00 | 0.00 | 81 | 1012.9 |
| 20260904172733 | 87 | 133 | 4.3 | 8.7 | 0.00 | 0.00 | 0.00 | 81 | 1012.9 |
| 20260904172631 | 87 | 90 | 4.3 | 8.7 | 0.00 | 0.00 | 0.00 | 82 | 1012.9 |
| 20260904172532 | 87 | 116 | 4.3 | 8.7 | 0.00 | 0.00 | 0.00 | 82 | 1012.9 |
| 20260904172431 | 87 | 75 | 4.3 | 8.7 | 0.00 | 0.00 | 0.00 | 82 | 1012.9 |
| 20260904172330 | 87 | 103 | 6.1 | 8.7 | 0.00 | 0.00 | 0.00 | 81 | 1013.0 |
| 20260904172232 | 87 | 118 | 7.0 | 8.7 | 0.00 | 0.00 | 0.00 | 81 | 1013.0 |
| 20260904172131 | 87 | 118 | 6.1 | 8.7 | 0.00 | 0.00 | 0.00 | 81 | 1013.1 |
| 20260904172031 | 87 | 117 | 5.2 | 7.8 | 0.00 | 0.00 | 0.00 | 81 | 1013.1 |
| 20260904171932 | 87 | 93 | 5.2 | 6.1 | 0.00 | 0.00 | 0.00 | 81 | 1013.2 |
| 20260904171833 | 87 | 104 | 4.3 | 6.1 | 0.00 | 0.00 | 0.00 | 81 | 1013.3 |
| 20260904171732 | 87 | 113 | 4.3 | 6.1 | 0.00 | 0.00 | 0.00 | 81 | 1013.3 |
| 20260904171631 | 87 | 109 | 4.3 | 6.1 | 0.00 | 0.00 | 0.00 | 81 | 1013.3 |
| 20260904171532 | 87 | 107 | 3.5 | 6.1 | 0.00 | 0.00 | 0.00 | 82 | 1013.3 |
| 20260904171432 | 87 | 114 | 3.5 | 6.1 | 0.00 | 0.00 | 0.00 | 82 | 1013.3 |
| 20260904171333 | 87 | 99 | 3.5 | 6.1 | 0.00 | 0.00 | 0.00 | 82 | 1013.3 |
| 20260904171231 | 87 | 145 | 3.5 | 6.1 | 0.00 | 0.00 | 0.00 | 82 | 1013.3 |
| 20260904171132 | 87 | 109 | 3.5 | 6.1 | 0.00 | 0.00 | 0.00 | 82 | 1013.3 |
| 20260904171031 | 87 | 82 | 3.5 | 6.1 | 0.00 | 0.00 | 0.00 | 81 | 1013.3 |
| 20260904170931 | 87 | 76 | 4.3 | 6.1 | 0.00 | 0.00 | 0.00 | 80 | 1013.3 |
| 20260904170833 | 87 | 85 | 4.3 | 6.1 | 0.00 | 0.00 | 0.00 | 81 | 1013.3 |
| 20260904170732 | 87 | 61 | 4.3 | 7.8 | 0.00 | 0.00 | 0.00 | 81 | 1013.3 |
| 20260904170632 | 87 | 75 | 5.2 | 7.8 | 0.00 | 0.00 | 0.00 | 82 | 1013.3 |
| 20260904170531 | 87 | 102 | 3.5 | 7.8 | 0.00 | 0.00 | 0.00 | 82 | 1013.2 |
| 20260904170432 | 87 | 100 | 2.6 | 7.8 | 0.00 | 0.00 | 0.00 | 82 | 1013.2 |
| 20260904170331 | 87 | 102 | 3.5 | 7.8 | 0.00 | 0.00 | 0.00 | 82 | 1013.2 |
| 20260904170231 | 87 | 86 | 3.5 | 7.8 | 0.00 | 0.00 | 0.00 | 82 | 1013.1 |
| 20260904170130 | 87 | 113 | 3.5 | 7.8 | 0.00 | 0.00 | 0.00 | 82 | 1013.1 |
| 20260904170032 | 87 | 82 | 3.5 | 7.8 | 0.00 | 0.00 | 0.00 | 82 | 1013.1 |
| 20260904165932 | 87 | 106 | 3.5 | 7.8 | 0.00 | 0.00 | 0.00 | 82 | 1013.2 |
| 20260904165833 | 87 | 110 | 4.3 | 7.8 | 0.00 | 0.00 | 0.00 | 81 | 1013.1 |
| 20260904165732 | 87 | 110 | 4.3 | 7.8 | 0.00 | 0.00 | 0.00 | 82 | 1013.1 |
| 20260904165632 | 87 | 113 | 5.2 | 7.8 | 0.00 | 0.00 | 0.00 | 82 | 1013.0 |
| 20260904165531 | 87 | 140 | 5.2 | 7.8 | 0.00 | 0.00 | 0.00 | 82 | 1013.1 |
| 20260904165433 | 87 | 121 | 4.3 | 8.7 | 0.00 | 0.00 | 0.00 | 83 | 1013.1 |
| 20260904165331 | 87 | 117 | 4.3 | 8.7 | 0.00 | 0.00 | 0.00 | 83 | 1013.1 |
| 20260904165231 | 87 | 90 | 4.3 | 8.7 | 0.00 | 0.00 | 0.00 | 83 | 1013.0 |
| 20260904165133 | 87 | 124 | 4.3 | 8.7 | 0.00 | 0.00 | 0.00 | 83 | 1013.0 |
| 20260904165032 | 87 | 94 | 3.5 | 8.7 | 0.00 | 0.00 | 0.00 | 84 | 1013.0 |
| 20260904164931 | 87 | 152 | 4.3 | 8.7 | 0.00 | 0.00 | 0.00 | 84 | 1013.0 |
| 20260904164831 | 87 | 158 | 4.3 | 8.7 | 0.00 | 0.00 | 0.00 | 84 | 1013.0 |
| 20260904164732 | 87 | 113 | 4.3 | 8.7 | 0.00 | 0.00 | 0.00 | 84 | 1013.0 |
| 20260904164632 | 87 | 104 | 4.3 | 8.7 | 0.00 | 0.00 | 0.00 | 84 | 1013.1 |
| 20260904164531 | 87 | 120 | 4.3 | 8.7 | 0.00 | 0.00 | 0.00 | 85 | 1013.1 |
| 20260904164432 | 87 | 86 | 4.3 | 7.8 | 0.00 | 0.00 | 0.00 | 85 | 1013.1 |
| 20260904164331 | 87 | 110 | 4.3 | 7.8 | 0.00 | 0.00 | 0.00 | 85 | 1013.1 |
| 20260904164231 | 87 | 79 | 4.3 | 7.8 | 0.00 | 0.00 | 0.00 | 85 | 1013.2 |
| 20260904164132 | 87 | 142 | 5.2 | 7.8 | 0.00 | 0.00 | 0.00 | 85 | 1013.2 |
| 20260904164032 | 87 | 110 | 5.2 | 7.8 | 0.00 | 0.00 | 0.00 | 85 | 1013.2 |
| 20260904163931 | 87 | 117 | 4.3 | 8.7 | 0.00 | 0.00 | 0.00 | 85 | 1013.1 |
| 20260904163831 | 87 | 128 | 4.3 | 8.7 | 0.00 | 0.00 | 0.00 | 84 | 1013.0 |
| 20260904163733 | 86 | 104 | 4.3 | 8.7 | 0.00 | 0.00 | 0.00 | 84 | 1013.1 |
| 20260904163631 | 86 | 102 | 5.2 | 8.7 | 0.00 | 0.00 | 0.00 | 84 | 1013.1 |
| 20260904163531 | 86 | 106 | 5.2 | 8.7 | 0.00 | 0.00 | 0.00 | 83 | 1013.1 |
| 20260904163433 | 86 | 104 | 5.2 | 8.7 | 0.00 | 0.00 | 0.00 | 84 | 1013.1 |
| 20260904163333 | 86 | 110 | 5.2 | 8.7 | 0.00 | 0.00 | 0.00 | 83 | 1013.0 |
| 20260904163231 | 86 | 154 | 5.2 | 8.7 | 0.00 | 0.00 | 0.00 | 83 | 1013.1 |
| 20260904163131 | 86 | 113 | 6.1 | 8.7 | 0.00 | 0.00 | 0.00 | 83 | 1013.0 |
| 20260904163032 | 86 | 89 | 5.2 | 8.7 | 0.00 | 0.00 | 0.00 | 83 | 1013.0 |
| 20260904162931 | 86 | 118 | 3.5 | 8.7 | 0.00 | 0.00 | 0.00 | 84 | 1012.9 |
| 20260904162831 | 86 | 147 | 3.5 | 8.7 | 0.00 | 0.00 | 0.00 | 84 | 1013.0 |
| 20260904162733 | 86 | 166 | 4.3 | 8.7 | 0.00 | 0.00 | 0.00 | 84 | 1013.0 |
| 20260904162632 | 86 | 97 | 4.3 | 8.7 | 0.00 | 0.00 | 0.00 | 84 | 1013.0 |
| 20260904162531 | 86 | 102 | 5.2 | 8.7 | 0.00 | 0.00 | 0.00 | 84 | 1013.0 |
| 20260904162431 | 86 | 116 | 5.2 | 8.7 | 0.00 | 0.00 | 0.00 | 84 | 1013.1 |
| 20260904162331 | 86 | 124 | 5.2 | 8.7 | 0.00 | 0.00 | 0.00 | 83 | 1013.1 |
| 20260904162232 | 86 | 103 | 6.1 | 8.7 | 0.00 | 0.00 | 0.00 | 84 | 1013.1 |
| 20260904162132 | 86 | 131 | 5.2 | 8.7 | 0.00 | 0.00 | 0.00 | 84 | 1013.1 |
| 20260904162032 | 86 | 116 | 4.3 | 8.7 | 0.00 | 0.00 | 0.00 | 84 | 1013.1 |
| 20260904161931 | 86 | 107 | 5.2 | 8.7 | 0.00 | 0.00 | 0.00 | 84 | 1013.1 |
| 20260904161832 | 86 | 93 | 5.2 | 8.7 | 0.00 | 0.00 | 0.00 | 84 | 1013.1 |
| 20260904161733 | 86 | 92 | 5.2 | 8.7 | 0.00 | 0.00 | 0.00 | 84 | 1013.1 |
| 20260904161632 | 86 | 96 | 5.2 | 8.7 | 0.00 | 0.00 | 0.00 | 84 | 1013.0 |
| 20260904161532 | 86 | 90 | 5.2 | 8.7 | 0.00 | 0.00 | 0.00 | 85 | 1013.0 |
| 20260904161431 | 86 | 96 | 4.3 | 8.7 | 0.00 | 0.00 | 0.00 | 85 | 1013.0 |
| 20260904161332 | 86 | 86 | 4.3 | 8.7 | 0.00 | 0.00 | 0.00 | 85 | 1013.1 |
| 20260904161231 | 86 | 107 | 3.5 | 8.7 | 0.00 | 0.00 | 0.00 | 85 | 1013.0 |
| 20260904161131 | 86 | 102 | 3.5 | 8.7 | 0.00 | 0.00 | 0.00 | 85 | 1013.1 |
| 20260904161032 | 86 | 107 | 3.5 | 8.7 | 0.00 | 0.00 | 0.00 | 85 | 1013.0 |
| 20260904160932 | 86 | 102 | 3.5 | 8.7 | 0.00 | 0.00 | 0.00 | 85 | 1013.0 |
| 20260904160832 | 86 | 110 | 4.3 | 8.7 | 0.00 | 0.00 | 0.00 | 85 | 1013.1 |
| 20260904160731 | 86 | 124 | 5.2 | 8.7 | 0.00 | 0.00 | 0.00 | 85 | 1013.0 |
| 20260904160633 | 86 | 114 | 5.2 | 8.7 | 0.00 | 0.00 | 0.00 | 85 | 1013.1 |
| 20260904160532 | 86 | 113 | 5.2 | 8.7 | 0.00 | 0.00 | 0.00 | 85 | 1013.1 |
| 20260904160431 | 86 | 96 | 4.3 | 7.8 | 0.00 | 0.00 | 0.00 | 85 | 1013.0 |
| 20260904160331 | 86 | 113 | 4.3 | 7.8 | 0.00 | 0.00 | 0.00 | 85 | 1013.1 |
| 20260904160231 | 86 | 96 | 3.5 | 7.8 | 0.00 | 0.00 | 0.00 | 85 | 1013.0 |
| 20260904160131 | 86 | 104 | 3.5 | 7.8 | 0.00 | 0.00 | 0.00 | 85 | 1013.0 |
| 20260904160032 | 86 | 109 | 4.3 | 7.8 | 0.00 | 0.00 | 0.00 | 85 | 1013.0 |
| 20260904155931 | 86 | 103 | 4.3 | 7.8 | 0.00 | 0.00 | 0.00 | 85 | 1013.1 |
| 20260904155831 | 86 | 104 | 3.5 | 7.8 | 0.00 | 0.00 | 0.00 | 85 | 1013.1 |
| 20260904155732 | 86 | 106 | 2.6 | 6.1 | 0.00 | 0.00 | 0.00 | 85 | 1013.0 |
| 20260904155633 | 86 | 99 | 3.5 | 6.1 | 0.00 | 0.00 | 0.00 | 85 | 1013.1 |
| 20260904155531 | 86 | 117 | 3.5 | 6.1 | 0.00 | 0.00 | 0.00 | 85 | 1013.1 |
| 20260904155431 | 86 | 125 | 2.6 | 6.1 | 0.00 | 0.00 | 0.00 | 85 | 1013.1 |
| 20260904155334 | 86 | 92 | 2.6 | 6.1 | 0.00 | 0.00 | 0.00 | 85 | 1013.0 |
| 20260904155232 | 86 | 106 | 2.6 | 6.1 | 0.00 | 0.00 | 0.00 | 85 | 1013.0 |
| 20260904155132 | 86 | 110 | 2.6 | 6.1 | 0.00 | 0.00 | 0.00 | 85 | 1013.1 |
| 20260904155032 | 86 | 103 | 3.5 | 6.1 | 0.00 | 0.00 | 0.00 | 85 | 1013.1 |
| 20260904154930 | 86 | 85 | 5.2 | 6.1 | 0.00 | 0.00 | 0.00 | 85 | 1013.1 |
| 20260904154831 | 86 | 93 | 5.2 | 6.1 | 0.00 | 0.00 | 0.00 | 85 | 1013.1 |
| 20260904154731 | 86 | 85 | 4.3 | 6.1 | 0.00 | 0.00 | 0.00 | 85 | 1013.2 |
| 20260904154632 | 86 | 138 | 3.5 | 6.1 | 0.00 | 0.00 | 0.00 | 85 | 1013.1 |
| 20260904154531 | 86 | 97 | 3.5 | 6.1 | 0.00 | 0.00 | 0.00 | 85 | 1013.2 |
| 20260904154432 | 86 | 89 | 3.5 | 6.1 | 0.00 | 0.00 | 0.00 | 85 | 1013.1 |
| 20260904154330 | 86 | 87 | 2.6 | 6.1 | 0.00 | 0.00 | 0.00 | 85 | 1013.1 |
| 20260904154231 | 86 | 97 | 1.7 | 6.1 | 0.00 | 0.00 | 0.00 | 85 | 1013.0 |
| 20260904154132 | 86 | 123 | 1.7 | 6.1 | 0.00 | 0.00 | 0.00 | 85 | 1013.0 |
| 20260904154034 | 86 | 137 | 3.5 | 6.1 | 0.00 | 0.00 | 0.00 | 85 | 1013.0 |
| 20260904153932 | 86 | 109 | 4.3 | 6.1 | 0.00 | 0.00 | 0.00 | 84 | 1013.0 |
| 20260904153832 | 86 | 89 | 4.3 | 6.1 | 0.00 | 0.00 | 0.00 | 85 | 1013.0 |
| 20260904153732 | 86 | 83 | 2.6 | 4.3 | 0.00 | 0.00 | 0.00 | 85 | 1012.9 |
| 20260904153633 | 86 | 96 | 1.7 | 4.3 | 0.00 | 0.00 | 0.00 | 85 | 1013.0 |
| 20260904153532 | 86 | 96 | 2.6 | 4.3 | 0.00 | 0.00 | 0.00 | 84 | 1013.0 |
| 20260904153432 | 86 | 96 | 3.5 | 4.3 | 0.00 | 0.00 | 0.00 | 84 | 1013.0 |
| 20260904153331 | 86 | 110 | 3.5 | 4.3 | 0.00 | 0.00 | 0.00 | 85 | 1012.9 |
| 20260904153232 | 86 | 100 | 3.5 | 4.3 | 0.00 | 0.00 | 0.00 | 85 | 1012.9 |
| 20260904153132 | 86 | 79 | 3.5 | 4.3 | 0.00 | 0.00 | 0.00 | 85 | 1012.9 |
| 20260904153031 | 86 | 73 | 3.5 | 4.3 | 0.00 | 0.00 | 0.00 | 85 | 1012.9 |
| 20260904152932 | 86 | 73 | 3.5 | 4.3 | 0.00 | 0.00 | 0.00 | 84 | 1012.8 |
| 20260904152832 | 86 | 76 | 3.5 | 4.3 | 0.00 | 0.00 | 0.00 | 84 | 1012.9 |
| 20260904152731 | 86 | 59 | 1.7 | 3.5 | 0.00 | 0.00 | 0.00 | 84 | 1012.8 |
| 20260904152631 | 86 | 58 | 0.9 | 3.5 | 0.00 | 0.00 | 0.00 | 85 | 1012.7 |
| 20260904152531 | 86 | 58 | 0.9 | 3.5 | 0.00 | 0.00 | 0.00 | 85 | 1012.7 |
| 20260904152431 | 86 | 58 | 1.7 | 3.5 | 0.00 | 0.00 | 0.00 | 84 | 1012.7 |
| 20260904152331 | 86 | 58 | 2.6 | 3.5 | 0.00 | 0.00 | 0.00 | 84 | 1012.7 |
| 20260904152232 | 86 | 59 | 1.7 | 4.3 | 0.00 | 0.00 | 0.00 | 84 | 1012.7 |
| 20260904152108 | 86 | 61 | 0.9 | 5.2 | 0.00 | 0.00 | 0.00 | 85 | 1012.6 |
| 20260904152009 | 86 | 118 | 0.0 | 5.2 | 0.00 | 0.00 | 0.00 | 84 | 1012.6 |
| 20260904151908 | 86 | 118 | 0.9 | 5.2 | 0.00 | 0.00 | 0.00 | 84 | 1012.6 |
| 20260904151806 | 86 | 118 | 1.7 | 6.1 | 0.00 | 0.00 | 0.00 | 84 | 1012.6 |
| 20260904151703 | 86 | 116 | 1.7 | 6.1 | 0.00 | 0.00 | 0.00 | 85 | 1012.7 |
| 20260904151603 | 86 | 94 | 1.7 | 6.1 | 0.00 | 0.00 | 0.00 | 85 | 1012.6 |
| 20260904151502 | 86 | 93 | 2.6 | 6.1 | 0.00 | 0.00 | 0.00 | 84 | 1012.7 |
| 20260904151402 | 86 | 94 | 4.3 | 6.1 | 0.00 | 0.00 | 0.00 | 84 | 1012.7 |
| 20260904151302 | 86 | 94 | 4.3 | 6.1 | 0.00 | 0.00 | 0.00 | 85 | 1012.7 |
| 20260904151202 | 86 | 87 | 4.3 | 6.1 | 0.00 | 0.00 | 0.00 | 85 | 1012.7 |
| 20260904151100 | 86 | 111 | 4.3 | 6.1 | 0.00 | 0.00 | 0.00 | 86 | 1012.7 |
| 20260904151000 | 86 | 56 | 4.3 | 6.1 | 0.00 | 0.00 | 0.00 | 85 | 1012.7 |
| 20260904150856 | 86 | 83 | 3.5 | 5.2 | 0.00 | 0.00 | 0.00 | 86 | 1012.8 |
| 20260904150752 | 86 | 86 | 3.5 | 5.2 | 0.00 | 0.00 | 0.00 | 86 | 1012.7 |
| 20260904150652 | 86 | 85 | 3.5 | 5.2 | 0.00 | 0.00 | 0.00 | 87 | 1012.8 |
| 20260904150554 | 86 | 71 | 2.6 | 5.2 | 0.00 | 0.00 | 0.00 | 87 | 1012.8 |
| 20260904150452 | 86 | 69 | 3.5 | 5.2 | 0.00 | 0.00 | 0.00 | 87 | 1012.8 |
| 20260904150352 | 85 | 76 | 4.3 | 5.2 | 0.00 | 0.00 | 0.00 | 87 | 1012.8 |
| 20260904150254 | 85 | 76 | 4.3 | 5.2 | 0.00 | 0.00 | 0.00 | 87 | 1012.7 |
| 20260904150153 | 85 | 66 | 3.5 | 5.2 | 0.00 | 0.00 | 0.00 | 87 | 1012.8 |
| 20260904150052 | 85 | 94 | 4.3 | 6.1 | 0.00 | 0.00 | 0.00 | 86 | 1012.7 |
| 20260904145952 | 85 | 76 | 3.5 | 6.1 | 0.00 | 0.00 | 0.00 | 86 | 1012.7 |
| 20260904145854 | 85 | 94 | 3.5 | 6.1 | 0.00 | 0.00 | 0.00 | 86 | 1012.7 |
| 20260904145752 | 85 | 103 | 3.5 | 6.1 | 0.00 | 0.00 | 0.00 | 86 | 1012.7 |
| 20260904145652 | 85 | 86 | 4.3 | 6.1 | 0.00 | 0.00 | 0.00 | 86 | 1012.8 |
| 20260904145554 | 85 | 83 | 4.3 | 6.1 | 0.00 | 0.00 | 0.00 | 86 | 1012.8 |
| 20260904145452 | 85 | 94 | 4.3 | 6.1 | 0.00 | 0.00 | 0.00 | 86 | 1012.7 |
| 20260904145353 | 85 | 90 | 4.3 | 6.1 | 0.00 | 0.00 | 0.00 | 85 | 1012.8 |
| 20260904145255 | 86 | 85 | 4.3 | 6.1 | 0.00 | 0.00 | 0.00 | 85 | 1012.7 |
| 20260904145152 | 86 | 93 | 5.2 | 6.1 | 0.00 | 0.00 | 0.00 | 85 | 1012.7 |
| 20260904145052 | 86 | 89 | 4.3 | 6.1 | 0.00 | 0.00 | 0.00 | 85 | 1012.7 |
| 20260904144953 | 86 | 80 | 4.3 | 6.1 | 0.00 | 0.00 | 0.00 | 85 | 1012.7 |
| 20260904144854 | 86 | 80 | 4.3 | 6.1 | 0.00 | 0.00 | 0.00 | 85 | 1012.6 |
| 20260904144753 | 86 | 89 | 4.3 | 6.1 | 0.00 | 0.00 | 0.00 | 84 | 1012.7 |
| 20260904144653 | 86 | 83 | 4.3 | 6.1 | 0.00 | 0.00 | 0.00 | 84 | 1012.7 |
| 20260904144555 | 86 | 55 | 3.5 | 6.1 | 0.00 | 0.00 | 0.00 | 84 | 1012.7 |
| 20260904144453 | 87 | 61 | 3.5 | 6.1 | 0.00 | 0.00 | 0.00 | 84 | 1012.6 |
| 20260904144352 | 87 | 73 | 3.5 | 6.1 | 0.00 | 0.00 | 0.00 | 84 | 1012.6 |
| 20260904144252 | 87 | 58 | 3.5 | 6.1 | 0.00 | 0.00 | 0.00 | 84 | 1012.6 |
| 20260904144153 | 87 | 51 | 3.5 | 6.1 | 0.00 | 0.00 | 0.00 | 84 | 1012.7 |
| 20260904144052 | 87 | 45 | 3.5 | 6.1 | 0.00 | 0.00 | 0.00 | 84 | 1012.6 |
| 20260904143953 | 87 | 24 | 1.7 | 5.2 | 0.00 | 0.00 | 0.00 | 84 | 1012.7 |
| 20260904143852 | 87 | 63 | 2.6 | 5.2 | 0.00 | 0.00 | 0.00 | 84 | 1012.7 |
| 20260904143752 | 87 | 102 | 3.5 | 5.2 | 0.00 | 0.00 | 0.00 | 84 | 1012.6 |
| 20260904143653 | 87 | 42 | 3.5 | 4.3 | 0.00 | 0.00 | 0.00 | 84 | 1012.6 |
| 20260904143552 | 87 | 79 | 3.5 | 4.3 | 0.00 | 0.00 | 0.00 | 84 | 1012.7 |
| 20260904143454 | 87 | 76 | 3.5 | 5.2 | 0.00 | 0.00 | 0.00 | 84 | 1012.7 |
| 20260904143353 | 87 | 7 | 3.5 | 5.2 | 0.00 | 0.00 | 0.00 | 84 | 1012.7 |
| 20260904143251 | 87 | 55 | 3.5 | 5.2 | 0.00 | 0.00 | 0.00 | 84 | 1012.6 |
| 20260904143153 | 87 | 39 | 3.5 | 5.2 | 0.00 | 0.00 | 0.00 | 84 | 1012.6 |
| 20260904143053 | 87 | 38 | 2.6 | 5.2 | 0.00 | 0.00 | 0.00 | 85 | 1012.6 |
| 20260904142953 | 87 | 8 | 1.7 | 5.2 | 0.00 | 0.00 | 0.00 | 85 | 1012.6 |
| 20260904142854 | 87 | 34 | 2.6 | 5.2 | 0.00 | 0.00 | 0.00 | 86 | 1012.6 |
| 20260904142751 | 86 | 34 | 3.5 | 5.2 | 0.00 | 0.00 | 0.00 | 86 | 1012.6 |
| 20260904142651 | 86 | 34 | 3.5 | 5.2 | 0.00 | 0.00 | 0.00 | 86 | 1012.6 |
| 20260904142550 | 86 | 32 | 2.6 | 5.2 | 0.00 | 0.00 | 0.00 | 86 | 1012.5 |
| 20260904142452 | 86 | 37 | 2.6 | 4.3 | 0.00 | 0.00 | 0.00 | 86 | 1012.5 |
| 20260904142352 | 86 | 90 | 2.6 | 5.2 | 0.00 | 0.00 | 0.00 | 86 | 1012.5 |
| 20260904142252 | 86 | 79 | 1.7 | 5.2 | 0.00 | 0.01 | 0.00 | 86 | 1012.5 |
| 20260904142152 | 85 | 79 | 2.6 | 5.2 | 0.00 | 0.01 | 0.00 | 86 | 1012.5 |
| 20260904142053 | 85 | 78 | 2.6 | 5.2 | 0.00 | 0.01 | 0.00 | 86 | 1012.4 |
| 20260904141951 | 85 | 78 | 2.6 | 5.2 | 0.00 | 0.01 | 0.00 | 87 | 1012.4 |
| 20260904141851 | 85 | 82 | 3.5 | 5.2 | 0.00 | 0.01 | 0.00 | 87 | 1012.5 |
| 20260904141752 | 85 | 97 | 3.5 | 5.2 | 0.00 | 0.02 | 0.00 | 87 | 1012.5 |
| 20260904141653 | 85 | 102 | 3.5 | 5.2 | 0.00 | 0.02 | 0.00 | 87 | 1012.5 |
| 20260904141549 | 85 | 76 | 3.5 | 5.2 | 0.00 | 0.02 | 0.00 | 88 | 1012.5 |
| 20260904141448 | 85 | 93 | 2.6 | 5.2 | 0.00 | 0.02 | 0.00 | 88 | 1012.5 |
| 20260904141346 | 85 | 68 | 1.7 | 4.3 | 0.00 | 0.02 | 0.00 | 88 | 1012.5 |
| 20260904141245 | 85 | 68 | 0.9 | 4.3 | 0.00 | 0.02 | 0.00 | 88 | 1012.6 |
| 20260904141144 | 85 | 66 | 0.9 | 4.3 | 0.00 | 0.02 | 0.00 | 89 | 1012.5 |
| 20260904141038 | 85 | 61 | 1.7 | 4.3 | 0.00 | 0.02 | 0.00 | 90 | 1012.4 |
| 20260904140938 | 84 | 61 | 2.6 | 4.3 | 0.00 | 0.02 | 0.00 | 89 | 1012.4 |
| 20260904140835 | 84 | 59 | 1.7 | 4.3 | 0.00 | 0.02 | 0.00 | 90 | 1012.5 |
| 20260904140734 | 84 | 49 | 2.6 | 4.3 | 0.00 | 0.02 | 0.00 | 90 | 1012.5 |
| 20260904140633 | 84 | 97 | 2.6 | 4.3 | 0.00 | 0.02 | 0.00 | 90 | 1012.4 |
| 20260904140530 | 84 | 109 | 3.5 | 4.3 | 0.00 | 0.02 | 0.00 | 90 | 1012.5 |
| 20260904140431 | 84 | 87 | 3.5 | 4.3 | 0.00 | 0.02 | 0.00 | 90 | 1012.4 |
| 20260904140331 | 84 | 82 | 3.5 | 4.3 | 0.00 | 0.02 | 0.00 | 90 | 1012.4 |
| 20260904140231 | 84 | 78 | 3.5 | 5.2 | 0.00 | 0.02 | 0.00 | 90 | 1012.4 |
| 20260904140133 | 84 | 58 | 3.5 | 5.2 | 0.00 | 0.02 | 0.00 | 90 | 1012.4 |
| 20260904140032 | 84 | 65 | 3.5 | 5.2 | 0.00 | 0.02 | 0.00 | 90 | 1012.4 |
| 20260904135932 | 84 | 63 | 3.5 | 5.2 | 0.00 | 0.02 | 0.00 | 91 | 1012.5 |
| 20260904135831 | 84 | 63 | 3.5 | 5.2 | 0.00 | 0.02 | 0.00 | 91 | 1012.4 |